Multibeam Report for EX1404L1


Ship Name: Okeanos Explorer
Chief Scientist: Sowers, Derek
NOAA/OAR/OER
Source Organization: NOAA Office of Ocean Exploration and Research (OER)
Start Date: 2014-08-09
End Date: 2014-08-30


View ISO Metadata

Visit the full NCEI Bathymetry Viewer


Multibeam Bathymetry

Cruise Details

Project: Shakedown and Mapping, NE Seamounts
Instrument: Kongsberg EM302

Data Quality

Number of Files: 727
Number of Records: 1412947
BATHYMETRY DATA Quantity Percentage
Number of Beams 305738928 100%
Number of Good Beams 288896337 94.49%
Number of Zero Beams 4039 0.0%
Number of Flagged Beams 16838552 5.51%

Navigation Totals

Total Time: 359.1947 hours
Total Track Length: 5531.666 km
Average Speed: 15.4 km/hr (8.3153 knots)

Cruise Bounds

Northern Extent: 41.194378
Southern Extent: 37.7348
Western Extent: -71.42017
Eastern Extent: -60.133766

Limits

Minimum Sonar Depth 0 Maximum Sonar Depth 5.4833
Minimum Altitude 25.536 Maximum Altitude 6119.3223
Minimum Depth 23.8822 Maximum Depth 6335.0142

File Information

Full Resolution Bathymetry as collected (raw): 352

Files File Size Description
0000_20140810_071646_EX1404L1_MB.all.mb58.gz 10.86MB Kongsberg multibeam vendor format
0001_20140810_072830_EX1404L1_MB.all.mb58.gz 27.41MB Kongsberg multibeam vendor format
0002_20140810_075830_EX1404L1_MB.all.mb58.gz 29.20MB Kongsberg multibeam vendor format
0003_20140810_082831_EX1404L1_MB.all.mb58.gz 32.58MB Kongsberg multibeam vendor format
0004_20140810_085500_EX1404L1_MB.all.mb58.gz 17.39MB Kongsberg multibeam vendor format
0005_20140810_090520_EX1404L1_MB.all.mb58.gz 37.79MB Kongsberg multibeam vendor format
0006_20140810_093524_EX1404L1_MB.all.mb58.gz 29.07MB Kongsberg multibeam vendor format
0007_20140810_100525_EX1404L1_MB.all.mb58.gz 23.88MB Kongsberg multibeam vendor format
0008_20140810_103124_EX1404L1_MB.all.mb58.gz 12.66MB Kongsberg multibeam vendor format
0009_20140810_104513_EX1404L1_MB.all.mb58.gz 27.23MB Kongsberg multibeam vendor format
0010_20140810_111514_EX1404L1_MB.all.mb58.gz 27.45MB Kongsberg multibeam vendor format
0011_20140810_114515_EX1404L1_MB.all.mb58.gz 28.17MB Kongsberg multibeam vendor format
0012_20140810_121512_EX1404L1_MB.all.mb58.gz 30.56MB Kongsberg multibeam vendor format
0013_20140810_124512_EX1404L1_MB.all.mb58.gz 35.97MB Kongsberg multibeam vendor format
0014_20140810_131513_EX1404L1_MB.all.mb58.gz 15.51MB Kongsberg multibeam vendor format
0015_20140810_132510_EX1404L1_MB.all.mb58.gz 48.26MB Kongsberg multibeam vendor format
0016_20140810_135511_EX1404L1_MB.all.mb58.gz 66.17MB Kongsberg multibeam vendor format
0017_20140810_145909_EX1404L1_MB.all.mb58.gz 20.94MB Kongsberg multibeam vendor format
0018_20140810_152158_EX1404L1_MB.all.mb58.gz 6.77MB Kongsberg multibeam vendor format
0019_20140810_152923_EX1404L1_MB.all.mb58.gz 30.13MB Kongsberg multibeam vendor format
0020_20140810_161309_EX1404L1_MB.all.mb58.gz 53.31MB Kongsberg multibeam vendor format
0021_20140810_165830_EX1404L1_MB.all.mb58.gz 9.46MB Kongsberg multibeam vendor format
0022_20140810_170424_EX1404L1_MB.all.mb58.gz 40.55MB Kongsberg multibeam vendor format
0023_20140810_172416_EX1404L1_MB.all.mb58.gz 114.41MB Kongsberg multibeam vendor format
0024_20140810_185505_EX1404L1_MB.all.mb58.gz 36.00MB Kongsberg multibeam vendor format
0025_20140810_193443_EX1404L1_MB.all.mb58.gz 36.25MB Kongsberg multibeam vendor format
0026_20140810_201430_EX1404L1_MB.all.mb58.gz 20.65MB Kongsberg multibeam vendor format
0027_20140810_203710_EX1404L1_MB.all.mb58.gz 41.42MB Kongsberg multibeam vendor format
0028_20140810_212217_EX1404L1_MB.all.mb58.gz 10.08MB Kongsberg multibeam vendor format
0029_20140810_213305_EX1404L1_MB.all.mb58.gz 39.86MB Kongsberg multibeam vendor format
0030_20140810_221625_EX1404L1_MB.all.mb58.gz 20.68MB Kongsberg multibeam vendor format
0031_20140810_223903_EX1404L1_MB.all.mb58.gz 5.67MB Kongsberg multibeam vendor format
0032_20140810_224520_EX1404L1_MB.all.mb58.gz 19.79MB Kongsberg multibeam vendor format
0033_20140810_230730_EX1404L1_MB.all.mb58.gz 10.52MB Kongsberg multibeam vendor format
0034_20140810_231907_EX1404L1_MB.all.mb58.gz 16.21MB Kongsberg multibeam vendor format
0035_20140810_233714_EX1404L1_MB.all.mb58.gz 37.94MB Kongsberg multibeam vendor format
0036_20140811_001927_EX1404L1_MB.all.mb58.gz 44.07MB Kongsberg multibeam vendor format
0037_20140811_010755_EX1404L1_MB.all.mb58.gz 22.13MB Kongsberg multibeam vendor format
0038_20140811_013147_EX1404L1_MB.all.mb58.gz 6.28MB Kongsberg multibeam vendor format
0039_20140811_013834_EX1404L1_MB.all.mb58.gz 19.22MB Kongsberg multibeam vendor format
0040_20140811_015903_EX1404L1_MB.all.mb58.gz 7.82MB Kongsberg multibeam vendor format
0041_20140811_020725_EX1404L1_MB.all.mb58.gz 20.42MB Kongsberg multibeam vendor format
0042_20140811_022918_EX1404L1_MB.all.mb58.gz 8.45MB Kongsberg multibeam vendor format
0043_20140811_023815_EX1404L1_MB.all.mb58.gz 17.58MB Kongsberg multibeam vendor format
0044_20140811_025649_EX1404L1_MB.all.mb58.gz 8.28MB Kongsberg multibeam vendor format
0045_20140811_030522_EX1404L1_MB.all.mb58.gz 24.07MB Kongsberg multibeam vendor format
0046_20140811_033039_EX1404L1_MB.all.mb58.gz 6.90MB Kongsberg multibeam vendor format
0047_20140811_033743_EX1404L1_MB.all.mb58.gz 22.44MB Kongsberg multibeam vendor format
0048_20140811_040117_EX1404L1_MB.all.mb58.gz 7.49MB Kongsberg multibeam vendor format
0049_20140811_040908_EX1404L1_MB.all.mb58.gz 27.94MB Kongsberg multibeam vendor format
0050_20140811_043852_EX1404L1_MB.all.mb58.gz 8.10MB Kongsberg multibeam vendor format
0051_20140811_044722_EX1404L1_MB.all.mb58.gz 19.43MB Kongsberg multibeam vendor format
0052_20140811_050806_EX1404L1_MB.all.mb58.gz 7.98MB Kongsberg multibeam vendor format
0053_20140811_051642_EX1404L1_MB.all.mb58.gz 6.28MB Kongsberg multibeam vendor format
0054_20140811_052331_EX1404L1_MB.all.mb58.gz 24.43MB Kongsberg multibeam vendor format
0055_20140811_054934_EX1404L1_MB.all.mb58.gz 10.03MB Kongsberg multibeam vendor format
0056_20140811_060019_EX1404L1_MB.all.mb58.gz 15.29MB Kongsberg multibeam vendor format
0057_20140811_061645_EX1404L1_MB.all.mb58.gz 75.59MB Kongsberg multibeam vendor format
0058_20140811_074020_EX1404L1_MB.all.mb58.gz 13.81MB Kongsberg multibeam vendor format
0059_20140811_075607_EX1404L1_MB.all.mb58.gz 11.89MB Kongsberg multibeam vendor format
0060_20140811_080920_EX1404L1_MB.all.mb58.gz 16.33MB Kongsberg multibeam vendor format
0061_20140811_082755_EX1404L1_MB.all.mb58.gz 60.36MB Kongsberg multibeam vendor format
0062_20140811_094650_EX1404L1_MB.all.mb58.gz 92.64MB Kongsberg multibeam vendor format
0063_20140812_004734_EX1404L1_MB.all.mb58.gz 378.71MB Kongsberg multibeam vendor format
0064_20140812_033923_EX1404L1_MB.all.mb58.gz 94.20MB Kongsberg multibeam vendor format
0065_20140812_040433_EX1404L1_MB.all.mb58.gz 288.47MB Kongsberg multibeam vendor format
0066_20140812_051337_EX1404L1_MB.all.mb58.gz 308.33MB Kongsberg multibeam vendor format
0067_20140812_061823_EX1404L1_MB.all.mb58.gz 556.81MB Kongsberg multibeam vendor format
0068_20140812_080611_EX1404L1_MB.all.mb58.gz 353.18MB Kongsberg multibeam vendor format
0069_20140812_091002_EX1404L1_MB.all.mb58.gz 3.09MB Kongsberg multibeam vendor format
0070_20140812_091036_EX1404L1_MB.all.mb58.gz 469.80MB Kongsberg multibeam vendor format
0071_20140812_102325_EX1404L1_MB.all.mb58.gz 120.96MB Kongsberg multibeam vendor format
0072_20140814_143600_EX1404L1_MB.all.mb58.gz 41.20MB Kongsberg multibeam vendor format
0073_20140814_172134_EX1404L1_MB.all.mb58.gz 661.47MB Kongsberg multibeam vendor format
0074_20140814_192134_EX1404L1_MB.all.mb58.gz 721.31MB Kongsberg multibeam vendor format
0075_20140814_212134_EX1404L1_MB.all.mb58.gz 677.67MB Kongsberg multibeam vendor format
0076_20140814_232135_EX1404L1_MB.all.mb58.gz 603.92MB Kongsberg multibeam vendor format
0077_20140815_012135_EX1404L1_MB.all.mb58.gz 522.24MB Kongsberg multibeam vendor format
0078_20140815_032135_EX1404L1_MB.all.mb58.gz 396.90MB Kongsberg multibeam vendor format
0079_20140815_052136_EX1404L1_MB.all.mb58.gz 160.92MB Kongsberg multibeam vendor format
0080_20140815_072140_EX1404L1_MB.all.mb58.gz 108.96MB Kongsberg multibeam vendor format
0081_20140815_092135_EX1404L1_MB.all.mb58.gz 108.33MB Kongsberg multibeam vendor format
0082_20140815_112142_EX1404L1_MB.all.mb58.gz 99.14MB Kongsberg multibeam vendor format
0083_20140815_132143_EX1404L1_MB.all.mb58.gz 88.84MB Kongsberg multibeam vendor format
0084_20140815_152139_EX1404L1_MB.all.mb58.gz 93.44MB Kongsberg multibeam vendor format
0085_20140815_172143_EX1404L1_MB.all.mb58.gz 8.52MB Kongsberg multibeam vendor format
0086_20140815_173315_EX1404L1_MB.all.mb58.gz 10.61MB Kongsberg multibeam vendor format
0087_20140815_174732_EX1404L1_MB.all.mb58.gz 31.54MB Kongsberg multibeam vendor format
0088_20140815_183006_EX1404L1_MB.all.mb58.gz 5.13MB Kongsberg multibeam vendor format
0089_20140815_183701_EX1404L1_MB.all.mb58.gz 74.68MB Kongsberg multibeam vendor format
0090_20140815_201400_EX1404L1_MB.all.mb58.gz 9.36MB Kongsberg multibeam vendor format
0091_20140815_202641_EX1404L1_MB.all.mb58.gz 88.74MB Kongsberg multibeam vendor format
0092_20140815_222646_EX1404L1_MB.all.mb58.gz 51.89MB Kongsberg multibeam vendor format
0093_20140815_233659_EX1404L1_MB.all.mb58.gz 6.73MB Kongsberg multibeam vendor format
0094_20140815_234601_EX1404L1_MB.all.mb58.gz 96.08MB Kongsberg multibeam vendor format
0095_20140816_014606_EX1404L1_MB.all.mb58.gz 409.8KB Kongsberg multibeam vendor format
0096_20140816_015400_EX1404L1_MB.all.mb58.gz 15.41MB Kongsberg multibeam vendor format
0097_20140816_021506_EX1404L1_MB.all.mb58.gz 87.21MB Kongsberg multibeam vendor format
0098_20140816_041502_EX1404L1_MB.all.mb58.gz 87.26MB Kongsberg multibeam vendor format
0099_20140816_061508_EX1404L1_MB.all.mb58.gz 87.09MB Kongsberg multibeam vendor format
0100_20140816_081502_EX1404L1_MB.all.mb58.gz 28.59MB Kongsberg multibeam vendor format
0101_20140816_085439_EX1404L1_MB.all.mb58.gz 9.41MB Kongsberg multibeam vendor format
0102_20140816_090738_EX1404L1_MB.all.mb58.gz 81.40MB Kongsberg multibeam vendor format
0103_20140816_110103_EX1404L1_MB.all.mb58.gz 22.76MB Kongsberg multibeam vendor format
0104_20140816_113248_EX1404L1_MB.all.mb58.gz 78.62MB Kongsberg multibeam vendor format
0105_20140816_133958_EX1404L1_MB.all.mb58.gz 26.08MB Kongsberg multibeam vendor format
0106_20140816_141545_EX1404L1_MB.all.mb58.gz 59.88MB Kongsberg multibeam vendor format
0107_20140816_155821_EX1404L1_MB.all.mb58.gz 32.90MB Kongsberg multibeam vendor format
0108_20140816_164407_EX1404L1_MB.all.mb58.gz 0.94MB Kongsberg multibeam vendor format
0109_20140816_203834_EX1404L1_MB.all.mb58.gz 86.49MB Kongsberg multibeam vendor format
0110_20140816_223843_EX1404L1_MB.all.mb58.gz 91.58MB Kongsberg multibeam vendor format
0111_20140817_003837_EX1404L1_MB.all.mb58.gz 84.22MB Kongsberg multibeam vendor format
0112_20140817_022720_EX1404L1_MB.all.mb58.gz 12.98MB Kongsberg multibeam vendor format
0113_20140817_024454_EX1404L1_MB.all.mb58.gz 41.95MB Kongsberg multibeam vendor format
0114_20140817_034151_EX1404L1_MB.all.mb58.gz 249.3KB Kongsberg multibeam vendor format
0115_20140817_034210_EX1404L1_MB.all.mb58.gz 4.30MB Kongsberg multibeam vendor format
0116_20140817_034800_EX1404L1_MB.all.mb58.gz 14.58MB Kongsberg multibeam vendor format
0117_20140817_040749_EX1404L1_MB.all.mb58.gz 87.58MB Kongsberg multibeam vendor format
0118_20140817_060748_EX1404L1_MB.all.mb58.gz 87.83MB Kongsberg multibeam vendor format
0119_20140817_080751_EX1404L1_MB.all.mb58.gz 18.28MB Kongsberg multibeam vendor format
0120_20140817_083250_EX1404L1_MB.all.mb58.gz 16.07MB Kongsberg multibeam vendor format
0121_20140817_085453_EX1404L1_MB.all.mb58.gz 74.95MB Kongsberg multibeam vendor format
0122_20140817_103810_EX1404L1_MB.all.mb58.gz 17.17MB Kongsberg multibeam vendor format
0123_20140817_110153_EX1404L1_MB.all.mb58.gz 75.95MB Kongsberg multibeam vendor format
0124_20140817_124712_EX1404L1_MB.all.mb58.gz 16.11MB Kongsberg multibeam vendor format
0125_20140817_130919_EX1404L1_MB.all.mb58.gz 31.54MB Kongsberg multibeam vendor format
0126_20140817_135234_EX1404L1_MB.all.mb58.gz 7.33MB Kongsberg multibeam vendor format
0127_20140817_140233_EX1404L1_MB.all.mb58.gz 94.30MB Kongsberg multibeam vendor format
0128_20140817_160238_EX1404L1_MB.all.mb58.gz 33.67MB Kongsberg multibeam vendor format
0129_20140817_164832_EX1404L1_MB.all.mb58.gz 12.46MB Kongsberg multibeam vendor format
0130_20140817_170532_EX1404L1_MB.all.mb58.gz 99.83MB Kongsberg multibeam vendor format
0131_20140817_190537_EX1404L1_MB.all.mb58.gz 91.85MB Kongsberg multibeam vendor format
0133_20140817_210535_EX1404L1_MB.all.mb58.gz 62.84MB Kongsberg multibeam vendor format
0134_20140817_223258_EX1404L1_MB.all.mb58.gz 2.82MB Kongsberg multibeam vendor format
0135_20140817_223652_EX1404L1_MB.all.mb58.gz 10.63MB Kongsberg multibeam vendor format
0136_20140817_225146_EX1404L1_MB.all.mb58.gz 2.60MB Kongsberg multibeam vendor format
0137_20140817_225522_EX1404L1_MB.all.mb58.gz 85.69MB Kongsberg multibeam vendor format
0138_20140818_005520_EX1404L1_MB.all.mb58.gz 21.49MB Kongsberg multibeam vendor format
0139_20140818_012523_EX1404L1_MB.all.mb58.gz 15.18MB Kongsberg multibeam vendor format
0140_20140818_014632_EX1404L1_MB.all.mb58.gz 78.67MB Kongsberg multibeam vendor format
0141_20140818_033259_EX1404L1_MB.all.mb58.gz 10.34MB Kongsberg multibeam vendor format
0142_20140818_034613_EX1404L1_MB.all.mb58.gz 59.50MB Kongsberg multibeam vendor format
0143_20140818_050719_EX1404L1_MB.all.mb58.gz 25.64MB Kongsberg multibeam vendor format
0144_20140818_054215_EX1404L1_MB.all.mb58.gz 92.94MB Kongsberg multibeam vendor format
0145_20140818_074220_EX1404L1_MB.all.mb58.gz 103.19MB Kongsberg multibeam vendor format
0146_20140818_094215_EX1404L1_MB.all.mb58.gz 40.28MB Kongsberg multibeam vendor format
0147_20140818_103551_EX1404L1_MB.all.mb58.gz 15.32MB Kongsberg multibeam vendor format
0148_20140818_105620_EX1404L1_MB.all.mb58.gz 102.17MB Kongsberg multibeam vendor format
0149_20140818_125626_EX1404L1_MB.all.mb58.gz 94.60MB Kongsberg multibeam vendor format
0150_20140818_145629_EX1404L1_MB.all.mb58.gz 38.95MB Kongsberg multibeam vendor format
0151_20140818_154943_EX1404L1_MB.all.mb58.gz 16.44MB Kongsberg multibeam vendor format
0152_20140818_161212_EX1404L1_MB.all.mb58.gz 88.49MB Kongsberg multibeam vendor format
0153_20140818_181206_EX1404L1_MB.all.mb58.gz 95.58MB Kongsberg multibeam vendor format
0154_20140818_200605_EX1404L1_MB.all.mb58.gz 7.01MB Kongsberg multibeam vendor format
0155_20140818_201317_EX1404L1_MB.all.mb58.gz 20.64MB Kongsberg multibeam vendor format
0156_20140818_203420_EX1404L1_MB.all.mb58.gz 5.45MB Kongsberg multibeam vendor format
0157_20140818_203957_EX1404L1_MB.all.mb58.gz 14.05MB Kongsberg multibeam vendor format
0158_20140818_205434_EX1404L1_MB.all.mb58.gz 84.96MB Kongsberg multibeam vendor format
0159_20140818_223815_EX1404L1_MB.all.mb58.gz 18.02MB Kongsberg multibeam vendor format
0160_20140818_230245_EX1404L1_MB.all.mb58.gz 58.91MB Kongsberg multibeam vendor format
0161_20140819_002228_EX1404L1_MB.all.mb58.gz 15.38MB Kongsberg multibeam vendor format
0162_20140819_004300_EX1404L1_MB.all.mb58.gz 49.82MB Kongsberg multibeam vendor format
0163_20140819_015046_EX1404L1_MB.all.mb58.gz 2.81MB Kongsberg multibeam vendor format
0164_20140819_015436_EX1404L1_MB.all.mb58.gz 38.99MB Kongsberg multibeam vendor format
0165_20140819_024749_EX1404L1_MB.all.mb58.gz 5.03MB Kongsberg multibeam vendor format
0166_20140819_025438_EX1404L1_MB.all.mb58.gz 93.20MB Kongsberg multibeam vendor format
0167_20140819_045439_EX1404L1_MB.all.mb58.gz 96.85MB Kongsberg multibeam vendor format
0168_20140819_065442_EX1404L1_MB.all.mb58.gz 87.96MB Kongsberg multibeam vendor format
0169_20140819_085440_EX1404L1_MB.all.mb58.gz 26.98MB Kongsberg multibeam vendor format
0170_20140819_093151_EX1404L1_MB.all.mb58.gz 7.22MB Kongsberg multibeam vendor format
0171_20140819_094142_EX1404L1_MB.all.mb58.gz 68.62MB Kongsberg multibeam vendor format
0172_20140819_111556_EX1404L1_MB.all.mb58.gz 17.62MB Kongsberg multibeam vendor format
0173_20140819_114011_EX1404L1_MB.all.mb58.gz 64.33MB Kongsberg multibeam vendor format
0174_20140819_130901_EX1404L1_MB.all.mb58.gz 2.63MB Kongsberg multibeam vendor format
0175_20140819_131236_EX1404L1_MB.all.mb58.gz 18.40MB Kongsberg multibeam vendor format
0176_20140819_133811_EX1404L1_MB.all.mb58.gz 13.56MB Kongsberg multibeam vendor format
0177_20140819_135655_EX1404L1_MB.all.mb58.gz 7.94MB Kongsberg multibeam vendor format
0178_20140819_140754_EX1404L1_MB.all.mb58.gz 86.86MB Kongsberg multibeam vendor format
0179_20140819_160748_EX1404L1_MB.all.mb58.gz 89.79MB Kongsberg multibeam vendor format
0180_20140819_180755_EX1404L1_MB.all.mb58.gz 72.05MB Kongsberg multibeam vendor format
0181_20140819_194438_EX1404L1_MB.all.mb58.gz 14.82MB Kongsberg multibeam vendor format
0182_20140819_200503_EX1404L1_MB.all.mb58.gz 2.09MB Kongsberg multibeam vendor format
0183_20140819_200754_EX1404L1_MB.all.mb58.gz 87.33MB Kongsberg multibeam vendor format
0184_20140819_220756_EX1404L1_MB.all.mb58.gz 87.16MB Kongsberg multibeam vendor format
0185_20140820_000757_EX1404L1_MB.all.mb58.gz 50.65MB Kongsberg multibeam vendor format
0186_20140820_011744_EX1404L1_MB.all.mb58.gz 10.93MB Kongsberg multibeam vendor format
0187_20140820_013254_EX1404L1_MB.all.mb58.gz 5.21MB Kongsberg multibeam vendor format
0188_20140820_014007_EX1404L1_MB.all.mb58.gz 83.34MB Kongsberg multibeam vendor format
0189_20140820_033424_EX1404L1_MB.all.mb58.gz 14.19MB Kongsberg multibeam vendor format
0190_20140820_035400_EX1404L1_MB.all.mb58.gz 92.05MB Kongsberg multibeam vendor format
0191_20140820_055404_EX1404L1_MB.all.mb58.gz 29.00MB Kongsberg multibeam vendor format
0192_20140820_063423_EX1404L1_MB.all.mb58.gz 87.76MB Kongsberg multibeam vendor format
0193_20140820_082900_EX1404L1_MB.all.mb58.gz 16.28MB Kongsberg multibeam vendor format
0194_20140820_085135_EX1404L1_MB.all.mb58.gz 82.18MB Kongsberg multibeam vendor format
0195_20140820_104504_EX1404L1_MB.all.mb58.gz 19.26MB Kongsberg multibeam vendor format
0196_20140820_111153_EX1404L1_MB.all.mb58.gz 82.01MB Kongsberg multibeam vendor format
0197_20140820_130524_EX1404L1_MB.all.mb58.gz 15.63MB Kongsberg multibeam vendor format
0198_20140820_132704_EX1404L1_MB.all.mb58.gz 67.67MB Kongsberg multibeam vendor format
0199_20140820_150147_EX1404L1_MB.all.mb58.gz 9.38MB Kongsberg multibeam vendor format
0200_20140820_152716_EX1404L1_MB.all.mb58.gz 85.82MB Kongsberg multibeam vendor format
0201_20140820_172711_EX1404L1_MB.all.mb58.gz 18.74MB Kongsberg multibeam vendor format
0202_20140820_175325_EX1404L1_MB.all.mb58.gz 10.12MB Kongsberg multibeam vendor format
0203_20140820_180738_EX1404L1_MB.all.mb58.gz 85.67MB Kongsberg multibeam vendor format
0204_20140820_200737_EX1404L1_MB.all.mb58.gz 86.65MB Kongsberg multibeam vendor format
0205_20140820_220742_EX1404L1_MB.all.mb58.gz 86.03MB Kongsberg multibeam vendor format
0206_20140821_000741_EX1404L1_MB.all.mb58.gz 57.33MB Kongsberg multibeam vendor format
0207_20140821_012743_EX1404L1_MB.all.mb58.gz 376.5KB Kongsberg multibeam vendor format
0208_20140821_012813_EX1404L1_MB.all.mb58.gz 14.34MB Kongsberg multibeam vendor format
0209_20140821_014807_EX1404L1_MB.all.mb58.gz 86.06MB Kongsberg multibeam vendor format
0210_20140821_034808_EX1404L1_MB.all.mb58.gz 87.97MB Kongsberg multibeam vendor format
0211_20140821_054813_EX1404L1_MB.all.mb58.gz 87.59MB Kongsberg multibeam vendor format
0212_20140821_074813_EX1404L1_MB.all.mb58.gz 86.15MB Kongsberg multibeam vendor format
0213_20140821_094724_EX1404L1_MB.all.mb58.gz 18.24MB Kongsberg multibeam vendor format
0214_20140821_101242_EX1404L1_MB.all.mb58.gz 86.83MB Kongsberg multibeam vendor format
0215_20140821_121238_EX1404L1_MB.all.mb58.gz 95.66MB Kongsberg multibeam vendor format
0216_20140821_141238_EX1404L1_MB.all.mb58.gz 92.29MB Kongsberg multibeam vendor format
0217_20140821_161239_EX1404L1_MB.all.mb58.gz 92.89MB Kongsberg multibeam vendor format
0218_20140821_181242_EX1404L1_MB.all.mb58.gz 3.50MB Kongsberg multibeam vendor format
0219_20140821_181730_EX1404L1_MB.all.mb58.gz 17.45MB Kongsberg multibeam vendor format
0220_20140821_184121_EX1404L1_MB.all.mb58.gz 100.72MB Kongsberg multibeam vendor format
0221_20140821_204125_EX1404L1_MB.all.mb58.gz 68.43MB Kongsberg multibeam vendor format
0222_20140821_223223_EX1404L1_MB.all.mb58.gz 25.40MB Kongsberg multibeam vendor format
0223_20140821_230438_EX1404L1_MB.all.mb58.gz 8.97MB Kongsberg multibeam vendor format
0224_20140821_231640_EX1404L1_MB.all.mb58.gz 106.83MB Kongsberg multibeam vendor format
0225_20140822_011639_EX1404L1_MB.all.mb58.gz 50.72MB Kongsberg multibeam vendor format
0226_20140822_022602_EX1404L1_MB.all.mb58.gz 14.16MB Kongsberg multibeam vendor format
0227_20140822_024523_EX1404L1_MB.all.mb58.gz 97.12MB Kongsberg multibeam vendor format
0228_20140822_044519_EX1404L1_MB.all.mb58.gz 109.26MB Kongsberg multibeam vendor format
0229_20140822_064519_EX1404L1_MB.all.mb58.gz 4.43MB Kongsberg multibeam vendor format
0230_20140822_065125_EX1404L1_MB.all.mb58.gz 42.59MB Kongsberg multibeam vendor format
0231_20140822_074838_EX1404L1_MB.all.mb58.gz 32.89MB Kongsberg multibeam vendor format
0232_20140822_082637_EX1404L1_MB.all.mb58.gz 55.28MB Kongsberg multibeam vendor format
0233_20140822_093528_EX1404L1_MB.all.mb58.gz 18.03MB Kongsberg multibeam vendor format
0234_20140822_095941_EX1404L1_MB.all.mb58.gz 7.14MB Kongsberg multibeam vendor format
0235_20140822_100911_EX1404L1_MB.all.mb58.gz 84.96MB Kongsberg multibeam vendor format
0236_20140822_120619_EX1404L1_MB.all.mb58.gz 9.03MB Kongsberg multibeam vendor format
0237_20140822_121831_EX1404L1_MB.all.mb58.gz 8.41MB Kongsberg multibeam vendor format
0238_20140822_123003_EX1404L1_MB.all.mb58.gz 87.90MB Kongsberg multibeam vendor format
0239_20140822_142959_EX1404L1_MB.all.mb58.gz 88.64MB Kongsberg multibeam vendor format
0240_20140822_162955_EX1404L1_MB.all.mb58.gz 84.52MB Kongsberg multibeam vendor format
0241_20140822_182357_EX1404L1_MB.all.mb58.gz 17.38MB Kongsberg multibeam vendor format
0242_20140822_184737_EX1404L1_MB.all.mb58.gz 58.01MB Kongsberg multibeam vendor format
0243_20140822_200421_EX1404L1_MB.all.mb58.gz 4.05MB Kongsberg multibeam vendor format
0244_20140822_200852_EX1404L1_MB.all.mb58.gz 270.5KB Kongsberg multibeam vendor format
0245_20140822_200909_EX1404L1_MB.all.mb58.gz 10.86MB Kongsberg multibeam vendor format
0246_20140822_202115_EX1404L1_MB.all.mb58.gz 4.40MB Kongsberg multibeam vendor format
0247_20140822_202616_EX1404L1_MB.all.mb58.gz 95.53MB Kongsberg multibeam vendor format
0248_20140822_222616_EX1404L1_MB.all.mb58.gz 89.38MB Kongsberg multibeam vendor format
0249_20140823_002611_EX1404L1_MB.all.mb58.gz 43.31MB Kongsberg multibeam vendor format
0250_20140823_012434_EX1404L1_MB.all.mb58.gz 17.12MB Kongsberg multibeam vendor format
0251_20140823_014749_EX1404L1_MB.all.mb58.gz 70.44MB Kongsberg multibeam vendor format
0252_20140823_031545_EX1404L1_MB.all.mb58.gz 39.05MB Kongsberg multibeam vendor format
0253_20140823_035856_EX1404L1_MB.all.mb58.gz 22.91MB Kongsberg multibeam vendor format
0254_20140823_042528_EX1404L1_MB.all.mb58.gz 97.44MB Kongsberg multibeam vendor format
0255_20140823_061806_EX1404L1_MB.all.mb58.gz 13.54MB Kongsberg multibeam vendor format
0256_20140823_063629_EX1404L1_MB.all.mb58.gz 99.02MB Kongsberg multibeam vendor format
0257_20140823_083633_EX1404L1_MB.all.mb58.gz 89.36MB Kongsberg multibeam vendor format
0258_20140823_103631_EX1404L1_MB.all.mb58.gz 105.73MB Kongsberg multibeam vendor format
0259_20140823_123632_EX1404L1_MB.all.mb58.gz 5.37MB Kongsberg multibeam vendor format
0260_20140823_124351_EX1404L1_MB.all.mb58.gz 45.93MB Kongsberg multibeam vendor format
0261_20140823_134631_EX1404L1_MB.all.mb58.gz 88.85MB Kongsberg multibeam vendor format
0262_20140823_154637_EX1404L1_MB.all.mb58.gz 15.11MB Kongsberg multibeam vendor format
0263_20140823_160643_EX1404L1_MB.all.mb58.gz 11.86MB Kongsberg multibeam vendor format
0264_20140823_162232_EX1404L1_MB.all.mb58.gz 73.72MB Kongsberg multibeam vendor format
0265_20140823_180257_EX1404L1_MB.all.mb58.gz 1.80MB Kongsberg multibeam vendor format
0266_20140823_180523_EX1404L1_MB.all.mb58.gz 30.18MB Kongsberg multibeam vendor format
0267_20140823_184550_EX1404L1_MB.all.mb58.gz 54.08MB Kongsberg multibeam vendor format
0268_20140823_194753_EX1404L1_MB.all.mb58.gz 73.15MB Kongsberg multibeam vendor format
0269_20140823_211744_EX1404L1_MB.all.mb58.gz 9.30MB Kongsberg multibeam vendor format
0270_20140823_212954_EX1404L1_MB.all.mb58.gz 4.01MB Kongsberg multibeam vendor format
0271_20140823_213510_EX1404L1_MB.all.mb58.gz 74.43MB Kongsberg multibeam vendor format
0272_20140823_230311_EX1404L1_MB.all.mb58.gz 17.82MB Kongsberg multibeam vendor format
0273_20140823_232449_EX1404L1_MB.all.mb58.gz 80.38MB Kongsberg multibeam vendor format
0274_20140824_005619_EX1404L1_MB.all.mb58.gz 13.22MB Kongsberg multibeam vendor format
0275_20140824_011322_EX1404L1_MB.all.mb58.gz 53.80MB Kongsberg multibeam vendor format
0276_20140824_020705_EX1404L1_MB.all.mb58.gz 28.45MB Kongsberg multibeam vendor format
0277_20140824_022648_EX1404L1_MB.all.mb58.gz 56.44MB Kongsberg multibeam vendor format
0278_20140824_032124_EX1404L1_MB.all.mb58.gz 2.49MB Kongsberg multibeam vendor format
0279_20140824_032421_EX1404L1_MB.all.mb58.gz 79.12MB Kongsberg multibeam vendor format
0280_20140824_050016_EX1404L1_MB.all.mb58.gz 88.86MB Kongsberg multibeam vendor format
0281_20140824_070017_EX1404L1_MB.all.mb58.gz 88.84MB Kongsberg multibeam vendor format
0282_20140824_090009_EX1404L1_MB.all.mb58.gz 41.19MB Kongsberg multibeam vendor format
0283_20140824_095517_EX1404L1_MB.all.mb58.gz 5.20MB Kongsberg multibeam vendor format
0284_20140824_100217_EX1404L1_MB.all.mb58.gz 89.88MB Kongsberg multibeam vendor format
0285_20140824_120216_EX1404L1_MB.all.mb58.gz 48.81MB Kongsberg multibeam vendor format
0286_20140824_130754_EX1404L1_MB.all.mb58.gz 28.14MB Kongsberg multibeam vendor format
0287_20140824_134545_EX1404L1_MB.all.mb58.gz 89.94MB Kongsberg multibeam vendor format
0288_20140824_154541_EX1404L1_MB.all.mb58.gz 62.60MB Kongsberg multibeam vendor format
0289_20140824_170939_EX1404L1_MB.all.mb58.gz 20.57MB Kongsberg multibeam vendor format
0290_20140824_173708_EX1404L1_MB.all.mb58.gz 98.02MB Kongsberg multibeam vendor format
0291_20140824_193704_EX1404L1_MB.all.mb58.gz 72.04MB Kongsberg multibeam vendor format
0292_20140824_210252_EX1404L1_MB.all.mb58.gz 4.08MB Kongsberg multibeam vendor format
0293_20140824_210818_EX1404L1_MB.all.mb58.gz 11.78MB Kongsberg multibeam vendor format
0294_20140824_212401_EX1404L1_MB.all.mb58.gz 5.44MB Kongsberg multibeam vendor format
0295_20140824_213117_EX1404L1_MB.all.mb58.gz 106.13MB Kongsberg multibeam vendor format
0296_20140824_233116_EX1404L1_MB.all.mb58.gz 78.94MB Kongsberg multibeam vendor format
0297_20140825_010216_EX1404L1_MB.all.mb58.gz 8.15MB Kongsberg multibeam vendor format
0298_20140825_011313_EX1404L1_MB.all.mb58.gz 13.77MB Kongsberg multibeam vendor format
0299_20140825_013143_EX1404L1_MB.all.mb58.gz 8.22MB Kongsberg multibeam vendor format
0300_20140825_014245_EX1404L1_MB.all.mb58.gz 96.41MB Kongsberg multibeam vendor format
0301_20140825_034243_EX1404L1_MB.all.mb58.gz 98.64MB Kongsberg multibeam vendor format
0302_20140825_054244_EX1404L1_MB.all.mb58.gz 24.58MB Kongsberg multibeam vendor format
0303_20140825_061541_EX1404L1_MB.all.mb58.gz 33.47MB Kongsberg multibeam vendor format
0304_20140825_070022_EX1404L1_MB.all.mb58.gz 90.53MB Kongsberg multibeam vendor format
0305_20140825_090023_EX1404L1_MB.all.mb58.gz 92.10MB Kongsberg multibeam vendor format
0306_20140825_110024_EX1404L1_MB.all.mb58.gz 29.20MB Kongsberg multibeam vendor format
0307_20140825_114001_EX1404L1_MB.all.mb58.gz 22.94MB Kongsberg multibeam vendor format
0308_20140825_121054_EX1404L1_MB.all.mb58.gz 90.02MB Kongsberg multibeam vendor format
0309_20140825_141102_EX1404L1_MB.all.mb58.gz 90.62MB Kongsberg multibeam vendor format
0310_20140825_161102_EX1404L1_MB.all.mb58.gz 11.57MB Kongsberg multibeam vendor format
0311_20140825_162632_EX1404L1_MB.all.mb58.gz 46.67MB Kongsberg multibeam vendor format
0312_20140825_172944_EX1404L1_MB.all.mb58.gz 70.93MB Kongsberg multibeam vendor format
0313_20140825_190233_EX1404L1_MB.all.mb58.gz 26.89MB Kongsberg multibeam vendor format
0314_20140825_193330_EX1404L1_MB.all.mb58.gz 103.89MB Kongsberg multibeam vendor format
0315_20140825_213326_EX1404L1_MB.all.mb58.gz 13.53MB Kongsberg multibeam vendor format
0316_20140825_214836_EX1404L1_MB.all.mb58.gz 7.28MB Kongsberg multibeam vendor format
0317_20140825_215712_EX1404L1_MB.all.mb58.gz 60.09MB Kongsberg multibeam vendor format
0318_20140825_231726_EX1404L1_MB.all.mb58.gz 7.50MB Kongsberg multibeam vendor format
0319_20140825_232731_EX1404L1_MB.all.mb58.gz 89.00MB Kongsberg multibeam vendor format
0320_20140826_012736_EX1404L1_MB.all.mb58.gz 91.12MB Kongsberg multibeam vendor format
0321_20140826_032733_EX1404L1_MB.all.mb58.gz 71.44MB Kongsberg multibeam vendor format
0322_20140826_050238_EX1404L1_MB.all.mb58.gz 14.20MB Kongsberg multibeam vendor format
0323_20140826_052147_EX1404L1_MB.all.mb58.gz 3.59MB Kongsberg multibeam vendor format
0324_20140826_052638_EX1404L1_MB.all.mb58.gz 11.12MB Kongsberg multibeam vendor format
0325_20140826_054140_EX1404L1_MB.all.mb58.gz 49.18MB Kongsberg multibeam vendor format
0326_20140826_064817_EX1404L1_MB.all.mb58.gz 15.19MB Kongsberg multibeam vendor format
0327_20140826_070843_EX1404L1_MB.all.mb58.gz 88.96MB Kongsberg multibeam vendor format
0328_20140826_090844_EX1404L1_MB.all.mb58.gz 92.38MB Kongsberg multibeam vendor format
0329_20140826_110849_EX1404L1_MB.all.mb58.gz 90.84MB Kongsberg multibeam vendor format
0330_20140826_130844_EX1404L1_MB.all.mb58.gz 10.24MB Kongsberg multibeam vendor format
0331_20140826_132228_EX1404L1_MB.all.mb58.gz 60.90MB Kongsberg multibeam vendor format
0332_20140826_144536_EX1404L1_MB.all.mb58.gz 87.79MB Kongsberg multibeam vendor format
0333_20140826_164530_EX1404L1_MB.all.mb58.gz 87.69MB Kongsberg multibeam vendor format
0334_20140826_184532_EX1404L1_MB.all.mb58.gz 87.54MB Kongsberg multibeam vendor format
0335_20140826_204533_EX1404L1_MB.all.mb58.gz 87.09MB Kongsberg multibeam vendor format
0336_20140826_224533_EX1404L1_MB.all.mb58.gz 87.00MB Kongsberg multibeam vendor format
0337_20140827_004531_EX1404L1_MB.all.mb58.gz 87.23MB Kongsberg multibeam vendor format
0338_20140827_024530_EX1404L1_MB.all.mb58.gz 88.05MB Kongsberg multibeam vendor format
0339_20140827_044529_EX1404L1_MB.all.mb58.gz 87.20MB Kongsberg multibeam vendor format
0340_20140827_064533_EX1404L1_MB.all.mb58.gz 86.54MB Kongsberg multibeam vendor format
0341_20140827_084538_EX1404L1_MB.all.mb58.gz 87.37MB Kongsberg multibeam vendor format
0342_20140827_104531_EX1404L1_MB.all.mb58.gz 92.83MB Kongsberg multibeam vendor format
0343_20140827_124534_EX1404L1_MB.all.mb58.gz 87.89MB Kongsberg multibeam vendor format
0344_20140827_144531_EX1404L1_MB.all.mb58.gz 88.64MB Kongsberg multibeam vendor format
0345_20140827_164534_EX1404L1_MB.all.mb58.gz 93.55MB Kongsberg multibeam vendor format
0346_20140827_184529_EX1404L1_MB.all.mb58.gz 103.40MB Kongsberg multibeam vendor format
0347_20140827_204529_EX1404L1_MB.all.mb58.gz 109.35MB Kongsberg multibeam vendor format
0348_20140827_224531_EX1404L1_MB.all.mb58.gz 128.88MB Kongsberg multibeam vendor format
0349_20140828_004532_EX1404L1_MB.all.mb58.gz 400.16MB Kongsberg multibeam vendor format
0350_20140828_024530_EX1404L1_MB.all.mb58.gz 567.21MB Kongsberg multibeam vendor format
0351_20140828_044530_EX1404L1_MB.all.mb58.gz 672.80MB Kongsberg multibeam vendor format
0352_20140828_064530_EX1404L1_MB.all.mb58.gz 713.64MB Kongsberg multibeam vendor format

Full Resolution Bathymetry (processed): 347

Files File Size Description
EX1404L1_Okeanos_March_2011_2014-222_0000_20140810_071646_EX1404L1_MB.txt.mb163 0.88MB Generic YXZ sounding format
EX1404L1_Okeanos_March_2011_2014-222_0001_20140810_072830_EX1404L1_MB.txt.mb163 2.29MB Generic YXZ sounding format
EX1404L1_Okeanos_March_2011_2014-222_0002_20140810_075830_EX1404L1_MB.txt.mb163 2.89MB Generic YXZ sounding format
EX1404L1_Okeanos_March_2011_2014-222_0003_20140810_082831_EX1404L1_MB.txt.mb163 3.58MB Generic YXZ sounding format
EX1404L1_Okeanos_March_2011_2014-222_0004_20140810_085500_EX1404L1_MB.txt.mb163 1.83MB Generic YXZ sounding format
EX1404L1_Okeanos_March_2011_2014-222_0005_20140810_090520_EX1404L1_MB.txt.mb163 4.14MB Generic YXZ sounding format
EX1404L1_Okeanos_March_2011_2014-222_0006_20140810_093524_EX1404L1_MB.txt.mb163 2.80MB Generic YXZ sounding format
EX1404L1_Okeanos_March_2011_2014-222_0007_20140810_100525_EX1404L1_MB.txt.mb163 2.02MB Generic YXZ sounding format
EX1404L1_Okeanos_March_2011_2014-222_0008_20140810_103124_EX1404L1_MB.txt.mb163 1.00MB Generic YXZ sounding format
EX1404L1_Okeanos_March_2011_2014-222_0009_20140810_104513_EX1404L1_MB.txt.mb163 2.16MB Generic YXZ sounding format
EX1404L1_Okeanos_March_2011_2014-222_0010_20140810_111514_EX1404L1_MB.txt.mb163 2.19MB Generic YXZ sounding format
EX1404L1_Okeanos_March_2011_2014-222_0011_20140810_114515_EX1404L1_MB.txt.mb163 2.43MB Generic YXZ sounding format
EX1404L1_Okeanos_March_2011_2014-222_0012_20140810_121512_EX1404L1_MB.txt.mb163 3.41MB Generic YXZ sounding format
EX1404L1_Okeanos_March_2011_2014-222_0013_20140810_124512_EX1404L1_MB.txt.mb163 4.01MB Generic YXZ sounding format
EX1404L1_Okeanos_March_2011_2014-222_0014_20140810_131513_EX1404L1_MB.txt.mb163 1.56MB Generic YXZ sounding format
EX1404L1_Okeanos_March_2011_2014-222_0015_20140810_132510_EX1404L1_MB.txt.mb163 4.75MB Generic YXZ sounding format
EX1404L1_Okeanos_March_2011_2014-222_0016_20140810_135511_EX1404L1_MB.txt.mb163 6.83MB Generic YXZ sounding format
EX1404L1_Okeanos_March_2011_2014-222_0017_20140810_145909_EX1404L1_MB.txt.mb163 1.72MB Generic YXZ sounding format
EX1404L1_Okeanos_March_2011_2014-222_0018_20140810_152158_EX1404L1_MB.txt.mb163 0.55MB Generic YXZ sounding format
EX1404L1_Okeanos_March_2011_2014-222_0019_20140810_152923_EX1404L1_MB.txt.mb163 2.46MB Generic YXZ sounding format
EX1404L1_Okeanos_March_2011_2014-222_0020_20140810_161309_EX1404L1_MB.txt.mb163 5.94MB Generic YXZ sounding format
EX1404L1_Okeanos_March_2011_2014-222_0021_20140810_165830_EX1404L1_MB.txt.mb163 1.20MB Generic YXZ sounding format
EX1404L1_Okeanos_March_2011_2014-222_0022_20140810_170424_EX1404L1_MB.txt.mb163 5.58MB Generic YXZ sounding format
EX1404L1_Okeanos_March_2011_2014-222_0023_20140810_172416_EX1404L1_MB.txt.mb163 11.68MB Generic YXZ sounding format
EX1404L1_Okeanos_March_2011_2014-222_0024_20140810_185505_EX1404L1_MB.txt.mb163 2.85MB Generic YXZ sounding format
EX1404L1_Okeanos_March_2011_2014-222_0025_20140810_193443_EX1404L1_MB.txt.mb163 2.99MB Generic YXZ sounding format
EX1404L1_Okeanos_March_2011_2014-222_0026_20140810_201430_EX1404L1_MB.txt.mb163 1.68MB Generic YXZ sounding format
EX1404L1_Okeanos_March_2011_2014-222_0027_20140810_203710_EX1404L1_MB.txt.mb163 3.40MB Generic YXZ sounding format
EX1404L1_Okeanos_March_2011_2014-222_0028_20140810_212217_EX1404L1_MB.txt.mb163 0.82MB Generic YXZ sounding format
EX1404L1_Okeanos_March_2011_2014-222_0029_20140810_213305_EX1404L1_MB.txt.mb163 3.32MB Generic YXZ sounding format
EX1404L1_Okeanos_March_2011_2014-222_0030_20140810_221625_EX1404L1_MB.txt.mb163 1.70MB Generic YXZ sounding format
EX1404L1_Okeanos_March_2011_2014-222_0031_20140810_223903_EX1404L1_MB.txt.mb163 440.8KB Generic YXZ sounding format
EX1404L1_Okeanos_March_2011_2014-222_0032_20140810_224520_EX1404L1_MB.txt.mb163 1.45MB Generic YXZ sounding format
EX1404L1_Okeanos_March_2011_2014-222_0033_20140810_230730_EX1404L1_MB.txt.mb163 0.78MB Generic YXZ sounding format
EX1404L1_Okeanos_March_2011_2014-222_0034_20140810_231907_EX1404L1_MB.txt.mb163 1.23MB Generic YXZ sounding format
EX1404L1_Okeanos_March_2011_2014-223_0035_20140810_233714_EX1404L1_MB.txt.mb163 2.97MB Generic YXZ sounding format
EX1404L1_Okeanos_March_2011_2014-223_0036_20140811_001927_EX1404L1_MB.txt.mb163 3.59MB Generic YXZ sounding format
EX1404L1_Okeanos_March_2011_2014-223_0037_20140811_010755_EX1404L1_MB.txt.mb163 1.86MB Generic YXZ sounding format
EX1404L1_Okeanos_March_2011_2014-223_0038_20140811_013147_EX1404L1_MB.txt.mb163 0.52MB Generic YXZ sounding format
EX1404L1_Okeanos_March_2011_2014-223_0039_20140811_013834_EX1404L1_MB.txt.mb163 1.65MB Generic YXZ sounding format
EX1404L1_Okeanos_March_2011_2014-223_0040_20140811_015903_EX1404L1_MB.txt.mb163 0.64MB Generic YXZ sounding format
EX1404L1_Okeanos_March_2011_2014-223_0041_20140811_020725_EX1404L1_MB.txt.mb163 1.72MB Generic YXZ sounding format
EX1404L1_Okeanos_March_2011_2014-223_0042_20140811_022918_EX1404L1_MB.txt.mb163 0.73MB Generic YXZ sounding format
EX1404L1_Okeanos_March_2011_2014-223_0043_20140811_023815_EX1404L1_MB.txt.mb163 1.57MB Generic YXZ sounding format
EX1404L1_Okeanos_March_2011_2014-223_0044_20140811_025649_EX1404L1_MB.txt.mb163 0.68MB Generic YXZ sounding format
EX1404L1_Okeanos_March_2011_2014-223_0045_20140811_030522_EX1404L1_MB.txt.mb163 2.09MB Generic YXZ sounding format
EX1404L1_Okeanos_March_2011_2014-223_0046_20140811_033039_EX1404L1_MB.txt.mb163 0.61MB Generic YXZ sounding format
EX1404L1_Okeanos_March_2011_2014-223_0047_20140811_033743_EX1404L1_MB.txt.mb163 2.00MB Generic YXZ sounding format
EX1404L1_Okeanos_March_2011_2014-223_0048_20140811_040117_EX1404L1_MB.txt.mb163 0.61MB Generic YXZ sounding format
EX1404L1_Okeanos_March_2011_2014-223_0049_20140811_040908_EX1404L1_MB.txt.mb163 2.40MB Generic YXZ sounding format
EX1404L1_Okeanos_March_2011_2014-223_0050_20140811_043852_EX1404L1_MB.txt.mb163 0.73MB Generic YXZ sounding format
EX1404L1_Okeanos_March_2011_2014-223_0051_20140811_044722_EX1404L1_MB.txt.mb163 1.68MB Generic YXZ sounding format
EX1404L1_Okeanos_March_2011_2014-223_0052_20140811_050806_EX1404L1_MB.txt.mb163 0.63MB Generic YXZ sounding format
EX1404L1_Okeanos_March_2011_2014-223_0053_20140811_051642_EX1404L1_MB.txt.mb163 0.50MB Generic YXZ sounding format
EX1404L1_Okeanos_March_2011_2014-223_0054_20140811_052331_EX1404L1_MB.txt.mb163 2.06MB Generic YXZ sounding format
EX1404L1_Okeanos_March_2011_2014-223_0055_20140811_054934_EX1404L1_MB.txt.mb163 0.81MB Generic YXZ sounding format
EX1404L1_Okeanos_March_2011_2014-223_0056_20140811_060019_EX1404L1_MB.txt.mb163 1.30MB Generic YXZ sounding format
EX1404L1_Okeanos_March_2011_2014-223_0057_20140811_061645_EX1404L1_MB.txt.mb163 6.06MB Generic YXZ sounding format
EX1404L1_Okeanos_March_2011_2014-223_0058_20140811_074020_EX1404L1_MB.txt.mb163 0.98MB Generic YXZ sounding format
EX1404L1_Okeanos_March_2011_2014-223_0059_20140811_075607_EX1404L1_MB.txt.mb163 0.88MB Generic YXZ sounding format
EX1404L1_Okeanos_March_2011_2014-223_0060_20140811_080920_EX1404L1_MB.txt.mb163 1.23MB Generic YXZ sounding format
EX1404L1_Okeanos_March_2011_2014-223_0061_20140811_082755_EX1404L1_MB.txt.mb163 3.35MB Generic YXZ sounding format
EX1404L1_Okeanos_March_2011_2014-223_0062_20140811_094650_EX1404L1_MB.txt.mb163 5.40MB Generic YXZ sounding format
EX1404L1_Okeanos_March_2011_2014-224_0063_20140812_004734_EX1404L1_MB.txt.mb163 64.91MB Generic YXZ sounding format
EX1404L1_Okeanos_March_2011_2014-224_0064_20140812_033923_EX1404L1_MB.txt.mb163 18.81MB Generic YXZ sounding format
EX1404L1_Okeanos_March_2011_2014-224_0065_20140812_040433_EX1404L1_MB.txt.mb163 55.86MB Generic YXZ sounding format
EX1404L1_Okeanos_March_2011_2014-224_0066_20140812_051337_EX1404L1_MB.txt.mb163 62.37MB Generic YXZ sounding format
EX1404L1_Okeanos_March_2011_2014-224_0067_20140812_061823_EX1404L1_MB.txt.mb163 117.51MB Generic YXZ sounding format
EX1404L1_Okeanos_March_2011_2014-224_0068_20140812_080611_EX1404L1_MB.txt.mb163 79.91MB Generic YXZ sounding format
EX1404L1_Okeanos_March_2011_2014-224_0069_20140812_091002_EX1404L1_MB.txt.mb163 0.70MB Generic YXZ sounding format
EX1404L1_Okeanos_March_2011_2014-224_0070_20140812_091036_EX1404L1_MB.txt.mb163 108.07MB Generic YXZ sounding format
EX1404L1_Okeanos_March_2011_2014-224_0071_20140812_102325_EX1404L1_MB.txt.mb163 27.60MB Generic YXZ sounding format
EX1404L1_Okeanos_March_2011_2014-226_0073_20140814_172134_EX1404L1_MB.txt.mb163 140.15MB Generic YXZ sounding format
EX1404L1_Okeanos_March_2011_2014-226_0074_20140814_192134_EX1404L1_MB.txt.mb163 154.57MB Generic YXZ sounding format
EX1404L1_Okeanos_March_2011_2014-226_0075_20140814_212134_EX1404L1_MB.txt.mb163 144.22MB Generic YXZ sounding format
EX1404L1_Okeanos_March_2011_2014-226_0076_20140814_232135_EX1404L1_MB.txt.mb163 121.67MB Generic YXZ sounding format
EX1404L1_Okeanos_March_2011_2014-227_0077_20140815_012135_EX1404L1_MB.txt.mb163 103.06MB Generic YXZ sounding format
EX1404L1_Okeanos_March_2011_2014-227_0078_20140815_032135_EX1404L1_MB.txt.mb163 72.91MB Generic YXZ sounding format
EX1404L1_Okeanos_March_2011_2014-227_0079_20140815_052136_EX1404L1_MB.txt.mb163 17.32MB Generic YXZ sounding format
EX1404L1_Okeanos_March_2011_2014-227_0080_20140815_072140_EX1404L1_MB.txt.mb163 8.32MB Generic YXZ sounding format
EX1404L1_Okeanos_March_2011_2014-227_0081_20140815_092135_EX1404L1_MB.txt.mb163 8.03MB Generic YXZ sounding format
EX1404L1_Okeanos_March_2011_2014-227_0082_20140815_112142_EX1404L1_MB.txt.mb163 5.85MB Generic YXZ sounding format
EX1404L1_Okeanos_March_2011_2014-227_0083_20140815_132143_EX1404L1_MB.txt.mb163 3.39MB Generic YXZ sounding format
EX1404L1_Okeanos_March_2011_2014-227_0084_20140815_152139_EX1404L1_MB.txt.mb163 4.41MB Generic YXZ sounding format
EX1404L1_Okeanos_March_2011_2014-227_0085_20140815_172143_EX1404L1_MB.txt.mb163 305.1KB Generic YXZ sounding format
EX1404L1_Okeanos_March_2011_2014-227_0086_20140815_173315_EX1404L1_MB.txt.mb163 383.5KB Generic YXZ sounding format
EX1404L1_Okeanos_March_2011_2014-227_0087_20140815_174732_EX1404L1_MB.txt.mb163 1.10MB Generic YXZ sounding format
EX1404L1_Okeanos_March_2011_2014-227_0088_20140815_183006_EX1404L1_MB.txt.mb163 181.6KB Generic YXZ sounding format
EX1404L1_Okeanos_March_2011_2014-227_0089_20140815_183701_EX1404L1_MB.txt.mb163 3.33MB Generic YXZ sounding format
EX1404L1_Okeanos_March_2011_2014-227_0090_20140815_201400_EX1404L1_MB.txt.mb163 330.8KB Generic YXZ sounding format
EX1404L1_Okeanos_March_2011_2014-227_0091_20140815_202641_EX1404L1_MB.txt.mb163 3.09MB Generic YXZ sounding format
EX1404L1_Okeanos_March_2011_2014-227_0092_20140815_222646_EX1404L1_MB.txt.mb163 1.94MB Generic YXZ sounding format
EX1404L1_Okeanos_March_2011_2014-227_0093_20140815_233659_EX1404L1_MB.txt.mb163 254.6KB Generic YXZ sounding format
EX1404L1_Okeanos_March_2011_2014-228_0094_20140815_234601_EX1404L1_MB.txt.mb163 4.99MB Generic YXZ sounding format
EX1404L1_Okeanos_March_2011_2014-228_0096_20140816_015400_EX1404L1_MB.txt.mb163 510.9KB Generic YXZ sounding format
EX1404L1_Okeanos_March_2011_2014-228_0097_20140816_021506_EX1404L1_MB.txt.mb163 2.73MB Generic YXZ sounding format
EX1404L1_Okeanos_March_2011_2014-228_0098_20140816_041502_EX1404L1_MB.txt.mb163 2.87MB Generic YXZ sounding format
EX1404L1_Okeanos_March_2011_2014-228_0099_20140816_061508_EX1404L1_MB.txt.mb163 2.81MB Generic YXZ sounding format
EX1404L1_Okeanos_March_2011_2014-228_0100_20140816_081502_EX1404L1_MB.txt.mb163 0.93MB Generic YXZ sounding format
EX1404L1_Okeanos_March_2011_2014-228_0101_20140816_085439_EX1404L1_MB.txt.mb163 300.2KB Generic YXZ sounding format
EX1404L1_Okeanos_March_2011_2014-228_0102_20140816_090738_EX1404L1_MB.txt.mb163 2.57MB Generic YXZ sounding format
EX1404L1_Okeanos_March_2011_2014-228_0103_20140816_110103_EX1404L1_MB.txt.mb163 0.74MB Generic YXZ sounding format
EX1404L1_Okeanos_March_2011_2014-228_0104_20140816_113248_EX1404L1_MB.txt.mb163 2.68MB Generic YXZ sounding format
EX1404L1_Okeanos_March_2011_2014-228_0105_20140816_133958_EX1404L1_MB.txt.mb163 0.89MB Generic YXZ sounding format
EX1404L1_Okeanos_March_2011_2014-228_0106_20140816_141545_EX1404L1_MB.txt.mb163 2.15MB Generic YXZ sounding format
EX1404L1_Okeanos_March_2011_2014-228_0107_20140816_155821_EX1404L1_MB.txt.mb163 1.10MB Generic YXZ sounding format
EX1404L1_Okeanos_March_2011_2014-228_0108_20140816_164407_EX1404L1_MB.txt.mb163 30.7KB Generic YXZ sounding format
EX1404L1_Okeanos_March_2011_2014-228_0109_20140816_203834_EX1404L1_MB.txt.mb163 2.82MB Generic YXZ sounding format
EX1404L1_Okeanos_March_2011_2014-229_0110_20140816_223843_EX1404L1_MB.txt.mb163 4.05MB Generic YXZ sounding format
EX1404L1_Okeanos_March_2011_2014-229_0111_20140817_003837_EX1404L1_MB.txt.mb163 3.63MB Generic YXZ sounding format
EX1404L1_Okeanos_March_2011_2014-229_0112_20140817_022720_EX1404L1_MB.txt.mb163 420.5KB Generic YXZ sounding format
EX1404L1_Okeanos_March_2011_2014-229_0113_20140817_024454_EX1404L1_MB.txt.mb163 1.44MB Generic YXZ sounding format
EX1404L1_Okeanos_March_2011_2014-229_0115_20140817_034210_EX1404L1_MB.txt.mb163 139.5KB Generic YXZ sounding format
EX1404L1_Okeanos_March_2011_2014-229_0116_20140817_034800_EX1404L1_MB.txt.mb163 503.5KB Generic YXZ sounding format
EX1404L1_Okeanos_March_2011_2014-229_0117_20140817_040749_EX1404L1_MB.txt.mb163 3.11MB Generic YXZ sounding format
EX1404L1_Okeanos_March_2011_2014-229_0118_20140817_060748_EX1404L1_MB.txt.mb163 3.31MB Generic YXZ sounding format
EX1404L1_Okeanos_March_2011_2014-229_0119_20140817_080751_EX1404L1_MB.txt.mb163 0.65MB Generic YXZ sounding format
EX1404L1_Okeanos_March_2011_2014-229_0120_20140817_083250_EX1404L1_MB.txt.mb163 0.58MB Generic YXZ sounding format
EX1404L1_Okeanos_March_2011_2014-229_0121_20140817_085453_EX1404L1_MB.txt.mb163 2.77MB Generic YXZ sounding format
EX1404L1_Okeanos_March_2011_2014-229_0122_20140817_103810_EX1404L1_MB.txt.mb163 0.61MB Generic YXZ sounding format
EX1404L1_Okeanos_March_2011_2014-229_0123_20140817_110153_EX1404L1_MB.txt.mb163 2.69MB Generic YXZ sounding format
EX1404L1_Okeanos_March_2011_2014-229_0124_20140817_124712_EX1404L1_MB.txt.mb163 0.54MB Generic YXZ sounding format
EX1404L1_Okeanos_March_2011_2014-229_0125_20140817_130919_EX1404L1_MB.txt.mb163 1.16MB Generic YXZ sounding format
EX1404L1_Okeanos_March_2011_2014-229_0126_20140817_135234_EX1404L1_MB.txt.mb163 230.2KB Generic YXZ sounding format
EX1404L1_Okeanos_March_2011_2014-229_0127_20140817_140233_EX1404L1_MB.txt.mb163 4.56MB Generic YXZ sounding format
EX1404L1_Okeanos_March_2011_2014-229_0128_20140817_160238_EX1404L1_MB.txt.mb163 1.15MB Generic YXZ sounding format
EX1404L1_Okeanos_March_2011_2014-229_0129_20140817_164832_EX1404L1_MB.txt.mb163 439.6KB Generic YXZ sounding format
EX1404L1_Okeanos_March_2011_2014-229_0130_20140817_170532_EX1404L1_MB.txt.mb163 5.86MB Generic YXZ sounding format
EX1404L1_Okeanos_March_2011_2014-229_0131_20140817_190537_EX1404L1_MB.txt.mb163 4.18MB Generic YXZ sounding format
EX1404L1_Okeanos_March_2011_2014-229_0133_20140817_210535_EX1404L1_MB.txt.mb163 2.24MB Generic YXZ sounding format
EX1404L1_Okeanos_March_2011_2014-229_0134_20140817_223258_EX1404L1_MB.txt.mb163 94.9KB Generic YXZ sounding format
EX1404L1_Okeanos_March_2011_2014-229_0135_20140817_223652_EX1404L1_MB.txt.mb163 363.7KB Generic YXZ sounding format
EX1404L1_Okeanos_March_2011_2014-229_0136_20140817_225146_EX1404L1_MB.txt.mb163 87.5KB Generic YXZ sounding format
EX1404L1_Okeanos_March_2011_2014-230_0137_20140817_225522_EX1404L1_MB.txt.mb163 3.07MB Generic YXZ sounding format
EX1404L1_Okeanos_March_2011_2014-230_0138_20140818_005520_EX1404L1_MB.txt.mb163 0.81MB Generic YXZ sounding format
EX1404L1_Okeanos_March_2011_2014-230_0139_20140818_012523_EX1404L1_MB.txt.mb163 0.54MB Generic YXZ sounding format
EX1404L1_Okeanos_March_2011_2014-230_0140_20140818_014632_EX1404L1_MB.txt.mb163 3.11MB Generic YXZ sounding format
EX1404L1_Okeanos_March_2011_2014-230_0141_20140818_033259_EX1404L1_MB.txt.mb163 483.8KB Generic YXZ sounding format
EX1404L1_Okeanos_March_2011_2014-230_0142_20140818_034613_EX1404L1_MB.txt.mb163 2.04MB Generic YXZ sounding format
EX1404L1_Okeanos_March_2011_2014-230_0143_20140818_050719_EX1404L1_MB.txt.mb163 0.83MB Generic YXZ sounding format
EX1404L1_Okeanos_March_2011_2014-230_0144_20140818_054215_EX1404L1_MB.txt.mb163 4.05MB Generic YXZ sounding format
EX1404L1_Okeanos_March_2011_2014-230_0145_20140818_074220_EX1404L1_MB.txt.mb163 6.45MB Generic YXZ sounding format
EX1404L1_Okeanos_March_2011_2014-230_0146_20140818_094215_EX1404L1_MB.txt.mb163 1.51MB Generic YXZ sounding format
EX1404L1_Okeanos_March_2011_2014-230_0147_20140818_103551_EX1404L1_MB.txt.mb163 0.55MB Generic YXZ sounding format
EX1404L1_Okeanos_March_2011_2014-230_0148_20140818_105620_EX1404L1_MB.txt.mb163 6.32MB Generic YXZ sounding format
EX1404L1_Okeanos_March_2011_2014-230_0149_20140818_125626_EX1404L1_MB.txt.mb163 4.58MB Generic YXZ sounding format
EX1404L1_Okeanos_March_2011_2014-230_0150_20140818_145629_EX1404L1_MB.txt.mb163 1.41MB Generic YXZ sounding format
EX1404L1_Okeanos_March_2011_2014-230_0151_20140818_154943_EX1404L1_MB.txt.mb163 0.55MB Generic YXZ sounding format
EX1404L1_Okeanos_March_2011_2014-230_0152_20140818_161212_EX1404L1_MB.txt.mb163 3.05MB Generic YXZ sounding format
EX1404L1_Okeanos_March_2011_2014-230_0153_20140818_181206_EX1404L1_MB.txt.mb163 5.30MB Generic YXZ sounding format
EX1404L1_Okeanos_March_2011_2014-230_0154_20140818_200605_EX1404L1_MB.txt.mb163 0.52MB Generic YXZ sounding format
EX1404L1_Okeanos_March_2011_2014-230_0155_20140818_201317_EX1404L1_MB.txt.mb163 1.73MB Generic YXZ sounding format
EX1404L1_Okeanos_March_2011_2014-230_0156_20140818_203420_EX1404L1_MB.txt.mb163 440.3KB Generic YXZ sounding format
EX1404L1_Okeanos_March_2011_2014-230_0157_20140818_203957_EX1404L1_MB.txt.mb163 1.10MB Generic YXZ sounding format
EX1404L1_Okeanos_March_2011_2014-230_0158_20140818_205434_EX1404L1_MB.txt.mb163 4.41MB Generic YXZ sounding format
EX1404L1_Okeanos_March_2011_2014-230_0159_20140818_223815_EX1404L1_MB.txt.mb163 0.56MB Generic YXZ sounding format
EX1404L1_Okeanos_March_2011_2014-230_0160_20140818_230245_EX1404L1_MB.txt.mb163 2.03MB Generic YXZ sounding format
EX1404L1_Okeanos_March_2011_2014-231_0161_20140819_002228_EX1404L1_MB.txt.mb163 0.54MB Generic YXZ sounding format
EX1404L1_Okeanos_March_2011_2014-231_0162_20140819_004300_EX1404L1_MB.txt.mb163 1.65MB Generic YXZ sounding format
EX1404L1_Okeanos_March_2011_2014-231_0163_20140819_015046_EX1404L1_MB.txt.mb163 91.6KB Generic YXZ sounding format
EX1404L1_Okeanos_March_2011_2014-231_0164_20140819_015436_EX1404L1_MB.txt.mb163 1.32MB Generic YXZ sounding format
EX1404L1_Okeanos_March_2011_2014-231_0165_20140819_024749_EX1404L1_MB.txt.mb163 166.5KB Generic YXZ sounding format
EX1404L1_Okeanos_March_2011_2014-231_0166_20140819_025438_EX1404L1_MB.txt.mb163 4.37MB Generic YXZ sounding format
EX1404L1_Okeanos_March_2011_2014-231_0167_20140819_045439_EX1404L1_MB.txt.mb163 4.85MB Generic YXZ sounding format
EX1404L1_Okeanos_March_2011_2014-231_0168_20140819_065442_EX1404L1_MB.txt.mb163 3.00MB Generic YXZ sounding format
EX1404L1_Okeanos_March_2011_2014-231_0169_20140819_085440_EX1404L1_MB.txt.mb163 0.96MB Generic YXZ sounding format
EX1404L1_Okeanos_March_2011_2014-231_0170_20140819_093151_EX1404L1_MB.txt.mb163 254.9KB Generic YXZ sounding format
EX1404L1_Okeanos_March_2011_2014-231_0171_20140819_094142_EX1404L1_MB.txt.mb163 2.37MB Generic YXZ sounding format
EX1404L1_Okeanos_March_2011_2014-231_0172_20140819_111556_EX1404L1_MB.txt.mb163 0.62MB Generic YXZ sounding format
EX1404L1_Okeanos_March_2011_2014-231_0173_20140819_114011_EX1404L1_MB.txt.mb163 2.22MB Generic YXZ sounding format
EX1404L1_Okeanos_March_2011_2014-231_0174_20140819_130901_EX1404L1_MB.txt.mb163 88.0KB Generic YXZ sounding format
EX1404L1_Okeanos_March_2011_2014-231_0175_20140819_131236_EX1404L1_MB.txt.mb163 0.61MB Generic YXZ sounding format
EX1404L1_Okeanos_March_2011_2014-231_0176_20140819_133811_EX1404L1_MB.txt.mb163 477.6KB Generic YXZ sounding format
EX1404L1_Okeanos_March_2011_2014-231_0177_20140819_135655_EX1404L1_MB.txt.mb163 278.6KB Generic YXZ sounding format
EX1404L1_Okeanos_March_2011_2014-231_0178_20140819_140754_EX1404L1_MB.txt.mb163 3.10MB Generic YXZ sounding format
EX1404L1_Okeanos_March_2011_2014-231_0179_20140819_160748_EX1404L1_MB.txt.mb163 3.64MB Generic YXZ sounding format
EX1404L1_Okeanos_March_2011_2014-231_0180_20140819_180755_EX1404L1_MB.txt.mb163 2.75MB Generic YXZ sounding format
EX1404L1_Okeanos_March_2011_2014-231_0181_20140819_194438_EX1404L1_MB.txt.mb163 0.52MB Generic YXZ sounding format
EX1404L1_Okeanos_March_2011_2014-231_0182_20140819_200503_EX1404L1_MB.txt.mb163 64.8KB Generic YXZ sounding format
EX1404L1_Okeanos_March_2011_2014-231_0183_20140819_200754_EX1404L1_MB.txt.mb163 3.14MB Generic YXZ sounding format
EX1404L1_Okeanos_March_2011_2014-231_0184_20140819_220756_EX1404L1_MB.txt.mb163 3.13MB Generic YXZ sounding format
EX1404L1_Okeanos_March_2011_2014-232_0185_20140820_000757_EX1404L1_MB.txt.mb163 1.82MB Generic YXZ sounding format
EX1404L1_Okeanos_March_2011_2014-232_0186_20140820_011744_EX1404L1_MB.txt.mb163 381.8KB Generic YXZ sounding format
EX1404L1_Okeanos_March_2011_2014-232_0187_20140820_013254_EX1404L1_MB.txt.mb163 179.9KB Generic YXZ sounding format
EX1404L1_Okeanos_March_2011_2014-232_0188_20140820_014007_EX1404L1_MB.txt.mb163 2.97MB Generic YXZ sounding format
EX1404L1_Okeanos_March_2011_2014-232_0189_20140820_033424_EX1404L1_MB.txt.mb163 0.53MB Generic YXZ sounding format
EX1404L1_Okeanos_March_2011_2014-232_0190_20140820_035400_EX1404L1_MB.txt.mb163 4.28MB Generic YXZ sounding format
EX1404L1_Okeanos_March_2011_2014-232_0191_20140820_055404_EX1404L1_MB.txt.mb163 0.99MB Generic YXZ sounding format
EX1404L1_Okeanos_March_2011_2014-232_0192_20140820_063423_EX1404L1_MB.txt.mb163 3.95MB Generic YXZ sounding format
EX1404L1_Okeanos_March_2011_2014-232_0193_20140820_082900_EX1404L1_MB.txt.mb163 0.61MB Generic YXZ sounding format
EX1404L1_Okeanos_March_2011_2014-232_0194_20140820_085135_EX1404L1_MB.txt.mb163 3.12MB Generic YXZ sounding format
EX1404L1_Okeanos_March_2011_2014-232_0195_20140820_104504_EX1404L1_MB.txt.mb163 0.64MB Generic YXZ sounding format
EX1404L1_Okeanos_March_2011_2014-232_0196_20140820_111153_EX1404L1_MB.txt.mb163 2.88MB Generic YXZ sounding format
EX1404L1_Okeanos_March_2011_2014-232_0197_20140820_130524_EX1404L1_MB.txt.mb163 0.51MB Generic YXZ sounding format
EX1404L1_Okeanos_March_2011_2014-232_0198_20140820_132704_EX1404L1_MB.txt.mb163 2.37MB Generic YXZ sounding format
EX1404L1_Okeanos_March_2011_2014-232_0199_20140820_150147_EX1404L1_MB.txt.mb163 324.7KB Generic YXZ sounding format
EX1404L1_Okeanos_March_2011_2014-232_0200_20140820_152716_EX1404L1_MB.txt.mb163 2.85MB Generic YXZ sounding format
EX1404L1_Okeanos_March_2011_2014-232_0201_20140820_172711_EX1404L1_MB.txt.mb163 0.62MB Generic YXZ sounding format
EX1404L1_Okeanos_March_2011_2014-232_0202_20140820_175325_EX1404L1_MB.txt.mb163 345.8KB Generic YXZ sounding format
EX1404L1_Okeanos_March_2011_2014-232_0203_20140820_180738_EX1404L1_MB.txt.mb163 2.89MB Generic YXZ sounding format
EX1404L1_Okeanos_March_2011_2014-232_0204_20140820_200737_EX1404L1_MB.txt.mb163 3.22MB Generic YXZ sounding format
EX1404L1_Okeanos_March_2011_2014-232_0205_20140820_220742_EX1404L1_MB.txt.mb163 3.19MB Generic YXZ sounding format
EX1404L1_Okeanos_March_2011_2014-233_0206_20140821_000741_EX1404L1_MB.txt.mb163 2.06MB Generic YXZ sounding format
EX1404L1_Okeanos_March_2011_2014-233_0208_20140821_012813_EX1404L1_MB.txt.mb163 448.0KB Generic YXZ sounding format
EX1404L1_Okeanos_March_2011_2014-233_0209_20140821_014807_EX1404L1_MB.txt.mb163 3.10MB Generic YXZ sounding format
EX1404L1_Okeanos_March_2011_2014-233_0210_20140821_034808_EX1404L1_MB.txt.mb163 3.33MB Generic YXZ sounding format
EX1404L1_Okeanos_March_2011_2014-233_0211_20140821_054813_EX1404L1_MB.txt.mb163 3.25MB Generic YXZ sounding format
EX1404L1_Okeanos_March_2011_2014-233_0212_20140821_074813_EX1404L1_MB.txt.mb163 2.91MB Generic YXZ sounding format
EX1404L1_Okeanos_March_2011_2014-233_0213_20140821_094724_EX1404L1_MB.txt.mb163 0.61MB Generic YXZ sounding format
EX1404L1_Okeanos_March_2011_2014-233_0214_20140821_101242_EX1404L1_MB.txt.mb163 2.83MB Generic YXZ sounding format
EX1404L1_Okeanos_March_2011_2014-233_0215_20140821_121238_EX1404L1_MB.txt.mb163 5.13MB Generic YXZ sounding format
EX1404L1_Okeanos_March_2011_2014-233_0216_20140821_141238_EX1404L1_MB.txt.mb163 4.24MB Generic YXZ sounding format
EX1404L1_Okeanos_March_2011_2014-233_0217_20140821_161239_EX1404L1_MB.txt.mb163 4.16MB Generic YXZ sounding format
EX1404L1_Okeanos_March_2011_2014-233_0218_20140821_181242_EX1404L1_MB.txt.mb163 112.7KB Generic YXZ sounding format
EX1404L1_Okeanos_March_2011_2014-233_0219_20140821_181730_EX1404L1_MB.txt.mb163 0.55MB Generic YXZ sounding format
EX1404L1_Okeanos_March_2011_2014-233_0220_20140821_184121_EX1404L1_MB.txt.mb163 5.49MB Generic YXZ sounding format
EX1404L1_Okeanos_March_2011_2014-233_0221_20140821_204125_EX1404L1_MB.txt.mb163 2.35MB Generic YXZ sounding format
EX1404L1_Okeanos_March_2011_2014-233_0222_20140821_223223_EX1404L1_MB.txt.mb163 1.23MB Generic YXZ sounding format
EX1404L1_Okeanos_March_2011_2014-233_0223_20140821_230438_EX1404L1_MB.txt.mb163 313.7KB Generic YXZ sounding format
EX1404L1_Okeanos_March_2011_2014-234_0224_20140821_231640_EX1404L1_MB.txt.mb163 7.27MB Generic YXZ sounding format
EX1404L1_Okeanos_March_2011_2014-234_0225_20140822_011639_EX1404L1_MB.txt.mb163 1.71MB Generic YXZ sounding format
EX1404L1_Okeanos_March_2011_2014-234_0226_20140822_022602_EX1404L1_MB.txt.mb163 467.7KB Generic YXZ sounding format
EX1404L1_Okeanos_March_2011_2014-234_0227_20140822_024523_EX1404L1_MB.txt.mb163 4.81MB Generic YXZ sounding format
EX1404L1_Okeanos_March_2011_2014-234_0228_20140822_044519_EX1404L1_MB.txt.mb163 5.69MB Generic YXZ sounding format
EX1404L1_Okeanos_March_2011_2014-234_0229_20140822_064519_EX1404L1_MB.txt.mb163 77.1KB Generic YXZ sounding format
EX1404L1_Okeanos_March_2011_2014-234_0230_20140822_065125_EX1404L1_MB.txt.mb163 1.13MB Generic YXZ sounding format
EX1404L1_Okeanos_March_2011_2014-234_0231_20140822_074838_EX1404L1_MB.txt.mb163 1.70MB Generic YXZ sounding format
EX1404L1_Okeanos_March_2011_2014-234_0232_20140822_082637_EX1404L1_MB.txt.mb163 2.53MB Generic YXZ sounding format
EX1404L1_Okeanos_March_2011_2014-234_0233_20140822_093528_EX1404L1_MB.txt.mb163 503.3KB Generic YXZ sounding format
EX1404L1_Okeanos_March_2011_2014-234_0234_20140822_095941_EX1404L1_MB.txt.mb163 248.2KB Generic YXZ sounding format
EX1404L1_Okeanos_March_2011_2014-234_0235_20140822_100911_EX1404L1_MB.txt.mb163 2.17MB Generic YXZ sounding format
EX1404L1_Okeanos_March_2011_2014-234_0236_20140822_120619_EX1404L1_MB.txt.mb163 276.4KB Generic YXZ sounding format
EX1404L1_Okeanos_March_2011_2014-234_0237_20140822_121831_EX1404L1_MB.txt.mb163 275.4KB Generic YXZ sounding format
EX1404L1_Okeanos_March_2011_2014-234_0238_20140822_123003_EX1404L1_MB.txt.mb163 2.94MB Generic YXZ sounding format
EX1404L1_Okeanos_March_2011_2014-234_0239_20140822_142959_EX1404L1_MB.txt.mb163 2.93MB Generic YXZ sounding format
EX1404L1_Okeanos_March_2011_2014-234_0240_20140822_162955_EX1404L1_MB.txt.mb163 3.03MB Generic YXZ sounding format
EX1404L1_Okeanos_March_2011_2014-234_0241_20140822_182357_EX1404L1_MB.txt.mb163 0.55MB Generic YXZ sounding format
EX1404L1_Okeanos_March_2011_2014-234_0242_20140822_184737_EX1404L1_MB.txt.mb163 1.98MB Generic YXZ sounding format
EX1404L1_Okeanos_March_2011_2014-234_0243_20140822_200421_EX1404L1_MB.txt.mb163 228.1KB Generic YXZ sounding format
EX1404L1_Okeanos_March_2011_2014-234_0245_20140822_200909_EX1404L1_MB.txt.mb163 0.66MB Generic YXZ sounding format
EX1404L1_Okeanos_March_2011_2014-234_0246_20140822_202115_EX1404L1_MB.txt.mb163 185.1KB Generic YXZ sounding format
EX1404L1_Okeanos_March_2011_2014-234_0247_20140822_202616_EX1404L1_MB.txt.mb163 3.59MB Generic YXZ sounding format
EX1404L1_Okeanos_March_2011_2014-234_0248_20140822_222616_EX1404L1_MB.txt.mb163 2.91MB Generic YXZ sounding format
EX1404L1_Okeanos_March_2011_2014-235_0249_20140823_002611_EX1404L1_MB.txt.mb163 1.47MB Generic YXZ sounding format
EX1404L1_Okeanos_March_2011_2014-235_0250_20140823_012434_EX1404L1_MB.txt.mb163 0.59MB Generic YXZ sounding format
EX1404L1_Okeanos_March_2011_2014-235_0251_20140823_014749_EX1404L1_MB.txt.mb163 2.82MB Generic YXZ sounding format
EX1404L1_Okeanos_March_2011_2014-235_0252_20140823_031545_EX1404L1_MB.txt.mb163 2.64MB Generic YXZ sounding format
EX1404L1_Okeanos_March_2011_2014-235_0253_20140823_035856_EX1404L1_MB.txt.mb163 1.18MB Generic YXZ sounding format
EX1404L1_Okeanos_March_2011_2014-235_0254_20140823_042528_EX1404L1_MB.txt.mb163 5.25MB Generic YXZ sounding format
EX1404L1_Okeanos_March_2011_2014-235_0255_20140823_061806_EX1404L1_MB.txt.mb163 475.3KB Generic YXZ sounding format
EX1404L1_Okeanos_March_2011_2014-235_0256_20140823_063629_EX1404L1_MB.txt.mb163 5.21MB Generic YXZ sounding format
EX1404L1_Okeanos_March_2011_2014-235_0257_20140823_083633_EX1404L1_MB.txt.mb163 2.98MB Generic YXZ sounding format
EX1404L1_Okeanos_March_2011_2014-235_0258_20140823_103631_EX1404L1_MB.txt.mb163 6.53MB Generic YXZ sounding format
EX1404L1_Okeanos_March_2011_2014-235_0259_20140823_123632_EX1404L1_MB.txt.mb163 184.2KB Generic YXZ sounding format
EX1404L1_Okeanos_March_2011_2014-235_0260_20140823_124351_EX1404L1_MB.txt.mb163 1.58MB Generic YXZ sounding format
EX1404L1_Okeanos_March_2011_2014-235_0261_20140823_134631_EX1404L1_MB.txt.mb163 2.68MB Generic YXZ sounding format
EX1404L1_Okeanos_March_2011_2014-235_0262_20140823_154637_EX1404L1_MB.txt.mb163 484.5KB Generic YXZ sounding format
EX1404L1_Okeanos_March_2011_2014-235_0263_20140823_160643_EX1404L1_MB.txt.mb163 392.2KB Generic YXZ sounding format
EX1404L1_Okeanos_March_2011_2014-235_0264_20140823_162232_EX1404L1_MB.txt.mb163 2.60MB Generic YXZ sounding format
EX1404L1_Okeanos_March_2011_2014-235_0265_20140823_180257_EX1404L1_MB.txt.mb163 62.5KB Generic YXZ sounding format
EX1404L1_Okeanos_March_2011_2014-235_0266_20140823_180523_EX1404L1_MB.txt.mb163 1.07MB Generic YXZ sounding format
EX1404L1_Okeanos_March_2011_2014-235_0267_20140823_184550_EX1404L1_MB.txt.mb163 2.80MB Generic YXZ sounding format
EX1404L1_Okeanos_March_2011_2014-235_0268_20140823_194753_EX1404L1_MB.txt.mb163 2.06MB Generic YXZ sounding format
EX1404L1_Okeanos_March_2011_2014-235_0269_20140823_211744_EX1404L1_MB.txt.mb163 263.8KB Generic YXZ sounding format
EX1404L1_Okeanos_March_2011_2014-235_0270_20140823_212954_EX1404L1_MB.txt.mb163 140.4KB Generic YXZ sounding format
EX1404L1_Okeanos_March_2011_2014-235_0271_20140823_213510_EX1404L1_MB.txt.mb163 3.55MB Generic YXZ sounding format
EX1404L1_Okeanos_March_2011_2014-235_0272_20140823_230311_EX1404L1_MB.txt.mb163 0.57MB Generic YXZ sounding format
EX1404L1_Okeanos_March_2011_2014-236_0273_20140823_232449_EX1404L1_MB.txt.mb163 2.52MB Generic YXZ sounding format
EX1404L1_Okeanos_March_2011_2014-236_0274_20140824_005619_EX1404L1_MB.txt.mb163 0.54MB Generic YXZ sounding format
EX1404L1_Okeanos_March_2011_2014-236_0275_20140824_011322_EX1404L1_MB.txt.mb163 4.38MB Generic YXZ sounding format
EX1404L1_Okeanos_March_2011_2014-236_0276_20140824_020705_EX1404L1_MB.txt.mb163 2.28MB Generic YXZ sounding format
EX1404L1_Okeanos_March_2011_2014-236_0277_20140824_022648_EX1404L1_MB.txt.mb163 2.30MB Generic YXZ sounding format
EX1404L1_Okeanos_March_2011_2014-236_0278_20140824_032124_EX1404L1_MB.txt.mb163 127.2KB Generic YXZ sounding format
EX1404L1_Okeanos_March_2011_2014-236_0279_20140824_032421_EX1404L1_MB.txt.mb163 4.12MB Generic YXZ sounding format
EX1404L1_Okeanos_March_2011_2014-236_0280_20140824_050016_EX1404L1_MB.txt.mb163 2.75MB Generic YXZ sounding format
EX1404L1_Okeanos_March_2011_2014-236_0281_20140824_070017_EX1404L1_MB.txt.mb163 2.91MB Generic YXZ sounding format
EX1404L1_Okeanos_March_2011_2014-236_0282_20140824_090009_EX1404L1_MB.txt.mb163 1.57MB Generic YXZ sounding format
EX1404L1_Okeanos_March_2011_2014-236_0283_20140824_095517_EX1404L1_MB.txt.mb163 186.4KB Generic YXZ sounding format
EX1404L1_Okeanos_March_2011_2014-236_0284_20140824_100217_EX1404L1_MB.txt.mb163 3.11MB Generic YXZ sounding format
EX1404L1_Okeanos_March_2011_2014-236_0285_20140824_120216_EX1404L1_MB.txt.mb163 1.75MB Generic YXZ sounding format
EX1404L1_Okeanos_March_2011_2014-236_0286_20140824_130754_EX1404L1_MB.txt.mb163 0.98MB Generic YXZ sounding format
EX1404L1_Okeanos_March_2011_2014-236_0287_20140824_134545_EX1404L1_MB.txt.mb163 3.35MB Generic YXZ sounding format
EX1404L1_Okeanos_March_2011_2014-236_0288_20140824_154541_EX1404L1_MB.txt.mb163 2.22MB Generic YXZ sounding format
EX1404L1_Okeanos_March_2011_2014-236_0289_20140824_170939_EX1404L1_MB.txt.mb163 0.67MB Generic YXZ sounding format
EX1404L1_Okeanos_March_2011_2014-236_0290_20140824_173708_EX1404L1_MB.txt.mb163 4.97MB Generic YXZ sounding format
EX1404L1_Okeanos_March_2011_2014-236_0291_20140824_193704_EX1404L1_MB.txt.mb163 3.81MB Generic YXZ sounding format
EX1404L1_Okeanos_March_2011_2014-236_0292_20140824_210252_EX1404L1_MB.txt.mb163 136.4KB Generic YXZ sounding format
EX1404L1_Okeanos_March_2011_2014-236_0293_20140824_210818_EX1404L1_MB.txt.mb163 400.3KB Generic YXZ sounding format
EX1404L1_Okeanos_March_2011_2014-236_0294_20140824_212401_EX1404L1_MB.txt.mb163 194.8KB Generic YXZ sounding format
EX1404L1_Okeanos_March_2011_2014-236_0295_20140824_213117_EX1404L1_MB.txt.mb163 6.52MB Generic YXZ sounding format
EX1404L1_Okeanos_March_2011_2014-236_0296_20140824_233116_EX1404L1_MB.txt.mb163 4.67MB Generic YXZ sounding format
EX1404L1_Okeanos_March_2011_2014-237_0297_20140825_010216_EX1404L1_MB.txt.mb163 276.0KB Generic YXZ sounding format
EX1404L1_Okeanos_March_2011_2014-237_0298_20140825_011313_EX1404L1_MB.txt.mb163 471.5KB Generic YXZ sounding format
EX1404L1_Okeanos_March_2011_2014-237_0299_20140825_013143_EX1404L1_MB.txt.mb163 266.3KB Generic YXZ sounding format
EX1404L1_Okeanos_March_2011_2014-237_0300_20140825_014245_EX1404L1_MB.txt.mb163 3.86MB Generic YXZ sounding format
EX1404L1_Okeanos_March_2011_2014-237_0301_20140825_034243_EX1404L1_MB.txt.mb163 4.18MB Generic YXZ sounding format
EX1404L1_Okeanos_March_2011_2014-237_0302_20140825_054244_EX1404L1_MB.txt.mb163 0.88MB Generic YXZ sounding format
EX1404L1_Okeanos_March_2011_2014-237_0303_20140825_061541_EX1404L1_MB.txt.mb163 1.19MB Generic YXZ sounding format
EX1404L1_Okeanos_March_2011_2014-237_0304_20140825_070022_EX1404L1_MB.txt.mb163 3.47MB Generic YXZ sounding format
EX1404L1_Okeanos_March_2011_2014-237_0305_20140825_090023_EX1404L1_MB.txt.mb163 3.82MB Generic YXZ sounding format
EX1404L1_Okeanos_March_2011_2014-237_0306_20140825_110024_EX1404L1_MB.txt.mb163 1.02MB Generic YXZ sounding format
EX1404L1_Okeanos_March_2011_2014-237_0307_20140825_114001_EX1404L1_MB.txt.mb163 0.73MB Generic YXZ sounding format
EX1404L1_Okeanos_March_2011_2014-237_0308_20140825_121054_EX1404L1_MB.txt.mb163 3.10MB Generic YXZ sounding format
EX1404L1_Okeanos_March_2011_2014-237_0309_20140825_141102_EX1404L1_MB.txt.mb163 3.17MB Generic YXZ sounding format
EX1404L1_Okeanos_March_2011_2014-237_0310_20140825_161102_EX1404L1_MB.txt.mb163 434.4KB Generic YXZ sounding format
EX1404L1_Okeanos_March_2011_2014-237_0311_20140825_162632_EX1404L1_MB.txt.mb163 1.66MB Generic YXZ sounding format
EX1404L1_Okeanos_March_2011_2014-237_0312_20140825_172944_EX1404L1_MB.txt.mb163 2.80MB Generic YXZ sounding format
EX1404L1_Okeanos_March_2011_2014-237_0313_20140825_190233_EX1404L1_MB.txt.mb163 0.98MB Generic YXZ sounding format
EX1404L1_Okeanos_March_2011_2014-237_0314_20140825_193330_EX1404L1_MB.txt.mb163 5.79MB Generic YXZ sounding format
EX1404L1_Okeanos_March_2011_2014-237_0315_20140825_213326_EX1404L1_MB.txt.mb163 0.73MB Generic YXZ sounding format
EX1404L1_Okeanos_March_2011_2014-237_0316_20140825_214836_EX1404L1_MB.txt.mb163 154.7KB Generic YXZ sounding format
EX1404L1_Okeanos_March_2011_2014-237_0317_20140825_215712_EX1404L1_MB.txt.mb163 2.01MB Generic YXZ sounding format
EX1404L1_Okeanos_March_2011_2014-237_0318_20140825_231726_EX1404L1_MB.txt.mb163 241.0KB Generic YXZ sounding format
EX1404L1_Okeanos_March_2011_2014-238_0319_20140825_232731_EX1404L1_MB.txt.mb163 2.06MB Generic YXZ sounding format
EX1404L1_Okeanos_March_2011_2014-238_0320_20140826_012736_EX1404L1_MB.txt.mb163 2.85MB Generic YXZ sounding format
EX1404L1_Okeanos_March_2011_2014-238_0321_20140826_032733_EX1404L1_MB.txt.mb163 2.78MB Generic YXZ sounding format
EX1404L1_Okeanos_March_2011_2014-238_0322_20140826_050238_EX1404L1_MB.txt.mb163 506.4KB Generic YXZ sounding format
EX1404L1_Okeanos_March_2011_2014-238_0323_20140826_052147_EX1404L1_MB.txt.mb163 129.6KB Generic YXZ sounding format
EX1404L1_Okeanos_March_2011_2014-238_0324_20140826_052638_EX1404L1_MB.txt.mb163 407.3KB Generic YXZ sounding format
EX1404L1_Okeanos_March_2011_2014-238_0325_20140826_054140_EX1404L1_MB.txt.mb163 1.68MB Generic YXZ sounding format
EX1404L1_Okeanos_March_2011_2014-238_0326_20140826_064817_EX1404L1_MB.txt.mb163 494.8KB Generic YXZ sounding format
EX1404L1_Okeanos_March_2011_2014-238_0327_20140826_070843_EX1404L1_MB.txt.mb163 3.29MB Generic YXZ sounding format
EX1404L1_Okeanos_March_2011_2014-238_0328_20140826_090844_EX1404L1_MB.txt.mb163 4.00MB Generic YXZ sounding format
EX1404L1_Okeanos_March_2011_2014-238_0329_20140826_110849_EX1404L1_MB.txt.mb163 3.36MB Generic YXZ sounding format
EX1404L1_Okeanos_March_2011_2014-238_0330_20140826_130844_EX1404L1_MB.txt.mb163 329.8KB Generic YXZ sounding format
EX1404L1_Okeanos_March_2011_2014-238_0331_20140826_132228_EX1404L1_MB.txt.mb163 2.04MB Generic YXZ sounding format
EX1404L1_Okeanos_March_2011_2014-238_0332_20140826_144536_EX1404L1_MB.txt.mb163 2.86MB Generic YXZ sounding format
EX1404L1_Okeanos_March_2011_2014-238_0333_20140826_164530_EX1404L1_MB.txt.mb163 2.83MB Generic YXZ sounding format
EX1404L1_Okeanos_March_2011_2014-238_0334_20140826_184532_EX1404L1_MB.txt.mb163 2.88MB Generic YXZ sounding format
EX1404L1_Okeanos_March_2011_2014-238_0335_20140826_204533_EX1404L1_MB.txt.mb163 2.92MB Generic YXZ sounding format
EX1404L1_Okeanos_March_2011_2014-238_0336_20140826_224533_EX1404L1_MB.txt.mb163 2.94MB Generic YXZ sounding format
EX1404L1_Okeanos_March_2011_2014-239_0337_20140827_004531_EX1404L1_MB.txt.mb163 2.99MB Generic YXZ sounding format
EX1404L1_Okeanos_March_2011_2014-239_0338_20140827_024530_EX1404L1_MB.txt.mb163 3.20MB Generic YXZ sounding format
EX1404L1_Okeanos_March_2011_2014-239_0339_20140827_044529_EX1404L1_MB.txt.mb163 2.83MB Generic YXZ sounding format
EX1404L1_Okeanos_March_2011_2014-239_0340_20140827_064533_EX1404L1_MB.txt.mb163 2.94MB Generic YXZ sounding format
EX1404L1_Okeanos_March_2011_2014-239_0341_20140827_084538_EX1404L1_MB.txt.mb163 3.21MB Generic YXZ sounding format
EX1404L1_Okeanos_March_2011_2014-239_0342_20140827_104531_EX1404L1_MB.txt.mb163 4.20MB Generic YXZ sounding format
EX1404L1_Okeanos_March_2011_2014-239_0343_20140827_124534_EX1404L1_MB.txt.mb163 3.31MB Generic YXZ sounding format
EX1404L1_Okeanos_March_2011_2014-239_0344_20140827_144531_EX1404L1_MB.txt.mb163 3.30MB Generic YXZ sounding format
EX1404L1_Okeanos_March_2011_2014-239_0345_20140827_164534_EX1404L1_MB.txt.mb163 4.43MB Generic YXZ sounding format
EX1404L1_Okeanos_March_2011_2014-239_0346_20140827_184529_EX1404L1_MB.txt.mb163 6.86MB Generic YXZ sounding format
EX1404L1_Okeanos_March_2011_2014-239_0347_20140827_204529_EX1404L1_MB.txt.mb163 8.07MB Generic YXZ sounding format
EX1404L1_Okeanos_March_2011_2014-239_0348_20140827_224531_EX1404L1_MB.txt.mb163 11.95MB Generic YXZ sounding format
EX1404L1_Okeanos_March_2011_2014-240_0349_20140828_004532_EX1404L1_MB.txt.mb163 78.04MB Generic YXZ sounding format
EX1404L1_Okeanos_March_2011_2014-240_0350_20140828_024530_EX1404L1_MB.txt.mb163 123.78MB Generic YXZ sounding format
EX1404L1_Okeanos_March_2011_2014-240_0351_20140828_044530_EX1404L1_MB.txt.mb163 150.29MB Generic YXZ sounding format
EX1404L1_Okeanos_March_2011_2014-240_0352_20140828_064530_EX1404L1_MB.txt.mb163 166.81MB Generic YXZ sounding format

Products: 15

Files File Size Description
EX1404L1_MB_FNL_Seamounts_50m_WGS84.asc.gz 15.70MB ESRI Arc ASCII
EX1404L1_MB_FNL_Seamounts_50m_WGS84.kmz.gz 15.17MB Compressed Keyhole Markup Language file
EX1404L1_MB_FNL_Seamounts_50m_WGS84.sd.gz 22.02MB Fledermaus surface
EX1404L1_MB_FNL_Seamounts_50m_WGS84.tif.gz 15.14MB GeoTIFF survey image
EX1404L1_MB_FNL_Seamounts_50m_WGS84.xyz.gz 32.20MB xyz grid file provided by the originator
EX1404L1_MB_FNL_Transits_50m_WGS84.asc.gz 9.64MB ESRI Arc ASCII
EX1404L1_MB_FNL_Transits_50m_WGS84.kmz.gz 107.0KB Compressed Keyhole Markup Language file
EX1404L1_MB_FNL_Transits_50m_WGS84.sd.gz 13.10MB Fledermaus surface
EX1404L1_MB_FNL_Transits_50m_WGS84.tif.gz 8.49MB GeoTIFF survey image
EX1404L1_MB_FNL_Transits_50m_WGS84.xyz.gz 18.31MB xyz grid file provided by the originator
EX1404L1_MB_FNL_VeatchCanyon_50m_WGS84.asc.gz 1.01MB ESRI Arc ASCII
EX1404L1_MB_FNL_VeatchCanyon_50m_WGS84.kmz.gz 1.01MB Compressed Keyhole Markup Language file
EX1404L1_MB_FNL_VeatchCanyon_50m_WGS84.sd.gz 1.50MB Fledermaus surface
EX1404L1_MB_FNL_VeatchCanyon_50m_WGS84.tif.gz 1.01MB GeoTIFF survey image
EX1404L1_MB_FNL_VeatchCanyon_50m_WGS84.xyz.gz 1.95MB xyz grid file provided by the originator

Metadata Files: 8

Files File Size Description
EX1404L1_Multibeam.xml NCEI created ISO metadata
EX1404L1_COLLECTION_UNRESOLVED.xml 12.2KB XML metadata file
EX1404L1_Multibeam_COLLECTION_UNRESOLVED.xml 20.8KB XML metadata file
EX1404L1_Profile_COLLECTION_UNRESOLVED.xml 15.2KB XML metadata file
mb_bag_info.tar.gz 42.0KB Additional cruise information
v1_file_metadata.tar.gz 102.6KB File level metadata
wcp_bag_info.tar.gz 13.1KB Additional cruise information
v2_file_metadata.tar.gz 115.1KB File level metadata

Ancillary Files: 4

Files File Size Description
asvp.tar.gz 0.73MB Sound Speed Profiles (SSP or SVP)
ctd.tar.gz 3.06MB Conductivity, Temperature, Depth (CTD) data
support.tar.gz 260.1KB Supporting data
xbt.tar.gz 3.36MB Expendable Bathythermograph (XBT) data

Water Column Sonar Data

Water Column Sonar Data Available: WCSD Map Viewer